GFSNE_850_thetae_054.txt.gz
Theta_e
350 343 343 345 345 343 343 342 342 343 342 342 339 342 340 342 341 336 337 337 337 336 336 335 335 335 335 335 334 332 330 329 327 328 329 329 325 323
352 352 346 347 347 345 344 344 343 342 342 340 341 341 339 336 339 331 331 331 330 331 334 335 336 335 335 335 335 335 334 330 329 330 330 330 327 323
353 353 351 350 349 347 346 345 344 343 342 340 340 341 339 330 328 331 329 329 333 330 330 330 331 334 335 335 335 335 335 335 331 330 332 330 329 326
354 353 351 351 341 342 348 346 344 343 343 341 340 340 340 341 335 332 331 334 339 338 337 332 331 331 332 332 334 336 335 335 335 331 332 332 331 330
354 354 353 353 343 346 350 349 348 351 350 349 347 346 345 346 347 347 345 344 343 343 340 338 334 334 334 333 333 333 334 335 335 335 331 333 332 331
353 354 355 355 354 344 345 350 349 351 350 350 349 347 346 345 346 348 349 349 348 347 347 347 346 345 345 343 339 335 334 334 335 336 334 331 334 333
352 353 353 353 348 347 355 353 354 354 351 349 348 347 347 347 348 349 351 351 351 352 352 352 352 351 349 347 346 345 341 335 334 335 336 334 332 335
351 350 347 350 342 342 344 345 347 351 353 353 350 349 351 352 352 353 352 352 353 353 354 354 355 354 354 353 350 348 347 348 341 335 335 335 332 333
345 346 347 349 347 342 340 339 339 340 343 343 345 346 347 350 350 352 353 355 358 359 358 355 357 357 356 355 355 353 351 349 349 347 338 335 335 331
346 348 342 337 342 348 349 348 346 345 339 334 334 335 337 345 351 356 358 357 356 357 356 356 356 356 356 355 352 352 352 351 350 348 346 341 335 333
333 334 336 332 329 329 330 331 331 333 344 344 341 340 347 353 358 357 356 354 357 357 358 358 357 356 355 354 353 351 351 349 349 348 347 346 340 334
335 332 331 330 329 329 330 330 331 335 344 347 353 358 361 361 357 356 356 357 358 358 357 357 354 350 347 347 347 350 350 347 347 345 347 345 342 337
348 347 348 344 332 330 331 333 336 343 350 357 361 359 361 360 358 359 359 360 358 357 353 354 350 347 348 348 348 347 347 347 346 345 344 344 344 339
347 348 351 352 352 350 354 356 356 358 360 360 357 358 357 358 359 357 357 357 356 350 344 345 348 349 347 346 345 345 346 343 347 346 345 344 344 341
350 355 357 359 359 357 358 358 359 360 359 358 358 358 360 359 357 356 354 347 345 343 344 341 343 345 346 344 344 343 344 343 343 345 344 342 339 330
354 355 356 357 357 358 359 359 359 358 358 359 358 358 360 355 354 351 343 342 341 341 340 342 341 341 341 342 340 341 341 343 343 342 340 335 331 324
355 356 357 357 357 357 358 359 358 358 361 361 362 357 354 353 345 341 341 340 341 341 340 339 336 335 335 336 339 338 336 335 334 335 334 329 324 325
354 358 357 358 360 361 361 360 361 362 361 359 353 350 347 343 341 340 338 334 337 340 338 338 335 333 336 333 333 332 331 331 331 331 330 328 326 329
357 356 359 362 362 361 362 362 361 360 356 352 347 345 341 340 337 335 333 339 340 338 338 337 332 334 335 334 331 331 330 328 329 328 327 329 330 329
359 359 361 362 361 360 360 360 356 349 347 345 342 339 339 339 334 333 338 340 339 338 338 337 333 331 331 331 330 331 331 328 329 329 330 330 330 329
360 359 360 361 360 359 356 349 347 345 343 339 339 337 336 334 333 334 338 337 336 337 336 336 332 330 332 334 333 331 332 330 330 330 330 330 329 327
361 360 357 358 356 353 349 344 341 339 336 333 334 333 333 333 334 337 337 337 335 337 335 332 331 332 332 333 333 331 331 331 331 329 329 329 327 325
356 355 354 352 349 343 341 339 335 335 334 334 333 334 333 333 337 335 332 333 333 334 333 333 334 331 331 328 330 330 330 330 329 327 326 328 327 327

GFSNE_850_thetae_057.txt.gz
Theta_e
350 349 344 346 345 344 344 344 344 345 345 348 341 344 341 343 343 341 335 332 330 330 332 334 336 336 336 335 335 335 335 335 333 329 328 328 329 329
351 351 349 349 347 347 346 345 344 344 343 343 343 342 343 341 340 341 340 337 333 331 332 333 332 332 333 335 336 336 335 335 335 335 331 329 330 330
353 354 355 351 353 350 347 346 346 345 344 344 343 342 342 343 339 337 338 340 346 345 344 342 341 340 338 334 334 335 336 336 335 335 335 331 330 331
353 353 354 353 352 346 350 348 347 347 347 345 345 345 346 346 346 346 347 350 349 346 341 341 343 343 342 340 337 335 335 335 336 335 335 335 332 331
353 354 354 355 354 352 353 350 349 350 352 353 352 350 349 349 349 349 348 349 350 351 349 349 348 349 350 351 351 348 345 341 336 335 336 336 335 332
353 354 354 354 354 353 350 348 349 347 351 351 351 351 350 348 347 348 350 349 349 350 352 352 353 353 353 352 352 352 350 348 347 342 336 335 335 334
353 354 354 353 354 354 356 356 355 356 355 354 352 350 348 347 351 350 350 353 353 350 351 354 357 357 357 357 357 357 355 355 352 350 348 342 335 335
352 352 352 353 353 351 349 345 345 351 352 353 351 350 348 349 352 353 353 352 355 354 359 359 359 358 357 356 356 355 354 354 353 353 351 349 347 336
349 348 351 351 351 351 351 347 344 342 345 343 343 341 341 340 341 344 352 352 356 358 358 357 359 359 358 356 355 353 352 353 353 351 350 349 348 348
348 346 341 340 345 352 354 354 353 344 335 337 343 344 344 343 350 354 353 357 358 359 359 359 359 358 359 357 356 355 352 349 351 353 352 349 349 347
340 337 341 341 331 330 335 338 340 341 345 346 346 346 348 349 351 357 360 360 359 359 359 360 359 357 352 345 350 350 349 348 348 349 347 345 345 346
342 336 333 331 331 331 333 334 337 335 335 340 343 347 352 358 359 360 360 360 359 359 360 358 355 352 351 349 351 352 349 348 347 346 345 343 346 345
350 347 348 344 338 337 337 339 339 339 342 347 351 357 361 362 361 361 360 359 359 358 357 348 349 351 349 346 342 346 347 348 345 345 344 343 346 344
346 345 346 346 346 346 347 347 348 351 353 354 357 358 361 362 361 359 358 358 356 350 343 346 350 346 344 344 344 344 341 341 342 343 345 344 343 344
340 349 347 347 350 353 355 357 358 357 357 357 358 362 359 357 358 358 357 355 352 346 346 343 342 344 341 342 341 336 336 334 336 334 335 337 339 339
341 342 346 350 353 357 359 360 359 358 358 359 360 356 359 361 360 356 355 348 344 344 344 343 341 341 336 335 334 332 332 332 331 331 332 334 333 333
349 349 350 351 355 359 360 360 360 360 361 359 358 359 362 358 356 353 347 344 343 343 343 342 342 338 337 338 334 331 332 331 330 329 330 330 328 324
359 357 359 360 361 361 361 362 359 360 360 359 361 362 357 355 351 347 344 343 342 344 343 341 341 337 338 338 335 330 331 331 328 328 327 328 325 321
363 361 361 362 362 360 358 361 363 362 361 362 360 356 353 350 345 343 343 341 343 343 342 341 340 337 337 337 335 331 330 330 329 329 327 327 327 326
363 361 363 360 362 360 359 360 360 357 357 354 352 350 348 345 343 343 341 341 343 342 340 340 341 338 336 336 334 334 333 331 329 330 329 329 329 327
358 359 361 362 360 359 359 360 358 354 350 350 348 346 344 342 342 341 340 339 339 339 338 340 338 336 333 335 334 334 333 331 330 330 330 330 330 328
360 357 359 359 358 357 355 354 353 349 348 345 343 342 340 337 339 339 339 339 338 338 337 337 333 334 334 333 333 332 332 330 331 330 330 329 329 328
357 357 357 357 356 354 352 347 344 344 343 342 335 338 338 335 338 340 340 338 334 333 336 335 335 334 333 332 330 331 328 329 329 328 329 328 328 327

GFSNE_850_thetae_060.txt.gz
Theta_e
337 337 343 344 346 344 343 344 344 344 345 348 342 342 343 342 342 343 343 340 336 335 337 335 334 335 335 334 334 334 336 335 335 335 334 332 330 328
350 351 343 337 347 348 346 345 345 345 344 343 344 343 344 343 343 343 342 342 345 343 342 345 346 344 342 341 341 340 339 336 335 336 335 334 333 331
353 353 353 351 348 351 350 347 346 346 345 344 344 344 343 343 342 343 347 347 347 348 349 348 347 347 347 346 348 349 348 345 341 337 336 336 335 334
348 352 355 354 348 345 350 350 351 349 348 346 341 337 344 348 348 348 348 347 348 349 352 352 351 351 352 352 353 352 351 351 349 348 343 337 336 335
355 351 350 349 350 350 346 347 346 349 352 352 354 354 352 349 350 349 348 349 352 351 351 353 353 351 352 353 353 354 354 351 351 350 348 348 341 336
352 350 350 351 350 350 345 342 347 346 346 348 347 348 353 352 351 353 352 351 348 354 348 342 353 358 360 360 358 358 359 354 355 354 354 352 349 344
348 352 352 351 350 351 352 347 349 353 355 356 357 358 355 350 346 345 345 348 341 339 343 357 356 356 356 357 357 356 355 354 352 352 353 353 351 349
346 346 353 354 354 352 349 352 349 348 353 354 350 346 341 339 340 341 342 339 345 347 355 357 357 358 358 357 358 359 358 358 357 355 353 355 354 349
346 347 348 347 350 349 348 348 349 348 344 343 344 339 340 340 347 343 345 347 349 355 359 358 359 357 357 359 358 353 346 345 347 348 347 347 347 350
345 344 347 342 345 352 353 354 354 352 349 350 350 351 351 344 346 348 350 351 355 359 358 359 357 356 354 344 338 344 350 351 349 345 346 346 346 348
346 345 345 348 337 334 339 347 351 351 345 340 342 345 347 349 346 347 352 358 360 360 358 358 358 353 339 339 348 344 339 347 349 349 348 345 344 346
346 343 342 340 339 338 340 336 335 330 330 331 335 337 344 341 348 354 359 360 361 361 357 357 351 344 349 349 341 338 344 342 337 335 340 347 345 343
345 342 339 336 335 337 338 339 338 340 344 346 347 347 347 353 355 360 362 362 358 358 357 346 346 348 348 344 335 340 335 331 331 332 332 334 339 344
348 348 346 345 345 345 345 346 346 347 349 350 352 354 355 357 361 362 359 357 358 356 350 345 347 346 343 339 336 334 331 331 332 331 332 333 334 337
345 346 346 350 350 349 348 348 349 351 354 356 358 357 357 361 361 357 359 357 355 350 345 344 345 343 341 340 337 336 330 331 330 330 331 330 332 333
347 343 342 343 344 342 344 346 347 351 355 359 358 358 359 360 357 360 357 355 352 349 343 344 344 342 341 336 337 336 331 330 330 330 329 326 326 326
346 344 341 340 342 346 348 350 352 354 358 359 359 360 360 357 360 357 355 352 347 344 340 343 343 342 341 336 338 336 332 331 330 329 330 328 325 324
362 361 358 352 349 349 349 352 357 360 359 359 360 360 360 360 358 355 351 349 345 341 343 344 342 341 340 337 337 336 333 332 330 329 329 328 326 324
363 362 362 358 359 360 361 363 363 362 359 359 359 359 362 357 353 352 348 344 341 342 346 343 341 342 341 338 334 334 333 334 330 330 329 329 329 327
362 362 363 363 362 364 363 362 358 356 358 357 355 355 355 352 350 346 344 344 341 343 344 342 338 340 339 338 334 334 334 333 332 330 330 329 328 328
361 360 362 361 363 362 360 359 358 357 356 356 353 352 350 348 345 343 343 341 340 339 338 340 340 339 337 330 333 333 333 332 331 330 330 329 329 328
359 361 359 359 359 360 360 359 358 356 355 352 350 349 347 345 345 342 341 340 339 336 333 332 336 337 335 333 332 332 331 331 330 330 328 328 329 328
356 357 359 359 358 355 353 354 353 352 350 348 349 347 345 341 334 335 338 339 340 336 335 335 336 335 333 334 333 331 329 328 329 329 328 327 327 327

GFSNE_850_thetae_063.txt.gz
Theta_e
340 340 343 342 341 342 342 342 343 344 344 346 345 344 343 343 343 343 343 343 342 346 348 348 347 345 345 345 344 344 343 342 341 339 336 334 334 334
345 333 337 341 344 347 346 342 344 344 344 343 343 343 347 345 345 344 342 344 347 347 348 350 351 351 351 350 348 348 349 348 348 346 343 339 336 334
346 342 343 343 339 346 348 347 345 345 345 338 340 341 342 343 342 341 348 348 348 348 350 350 351 352 352 352 350 352 352 351 350 348 347 346 344 339
351 350 352 352 352 344 350 352 349 348 347 347 347 345 351 346 346 349 350 352 352 351 349 354 355 354 349 352 357 360 359 358 359 354 349 346 348 345
352 353 347 352 352 348 343 347 350 350 350 347 348 348 344 343 353 353 353 350 347 340 345 345 341 345 356 358 356 354 352 351 352 353 352 353 352 345
344 346 347 347 347 348 347 346 344 344 344 346 346 343 346 352 355 351 341 333 334 334 334 345 357 357 356 356 355 355 357 356 354 355 353 355 354 354
338 342 342 345 346 347 348 349 351 350 348 350 353 354 353 357 351 338 338 337 336 336 346 357 357 356 355 357 358 360 360 351 345 347 347 347 345 346
334 336 336 339 340 344 349 350 349 350 351 350 348 348 341 338 337 341 340 342 346 339 354 358 357 356 357 356 353 353 343 343 346 350 349 347 345 346
340 337 337 339 338 339 342 345 347 348 348 349 349 344 344 342 348 339 343 346 346 348 357 359 357 357 356 342 341 340 339 337 337 337 344 347 346 345
345 343 341 338 336 338 337 347 351 351 350 350 351 351 351 345 346 345 346 344 349 355 359 360 357 356 351 340 339 342 334 332 332 332 332 332 333 338
346 347 346 343 338 339 341 341 343 343 341 342 347 351 349 341 338 346 343 351 356 359 358 358 357 352 344 341 341 336 332 331 331 331 331 331 332 332
346 347 347 347 345 343 344 342 340 333 333 336 337 338 342 343 344 348 354 358 359 360 357 358 355 347 349 345 341 335 333 330 331 330 331 331 331 333
345 345 345 344 343 343 344 343 340 337 343 345 346 346 345 349 354 355 357 360 360 358 358 355 349 347 348 343 341 335 335 331 330 330 330 330 330 331
346 345 344 342 341 342 341 343 344 346 347 347 348 348 351 355 356 358 360 362 361 359 356 348 346 345 344 342 339 334 336 332 330 330 330 330 329 330
349 346 346 345 345 349 351 350 348 348 348 348 348 350 354 357 357 359 360 359 358 355 352 349 344 344 343 341 339 335 335 332 330 329 329 329 329 329
352 351 351 351 351 351 352 351 348 347 347 348 350 353 356 358 359 360 359 355 355 353 351 344 342 343 342 340 337 336 335 333 331 329 329 329 328 328
352 355 356 354 352 349 347 347 346 344 343 345 350 357 358 358 359 358 358 355 354 350 348 341 341 343 342 339 338 334 333 333 332 329 329 329 328 327
355 354 355 353 348 342 341 342 342 342 343 349 358 358 359 359 360 359 356 352 351 349 346 342 345 343 342 339 338 336 333 333 332 330 329 328 328 327
359 354 357 360 360 357 355 351 350 352 357 360 360 355 356 357 356 356 352 350 351 345 341 344 344 342 340 340 338 334 331 333 331 331 330 329 328 328
355 356 359 360 360 360 358 359 361 362 362 362 359 355 355 355 354 352 350 349 345 344 340 342 343 339 338 339 336 329 331 331 330 331 330 329 329 328
356 357 359 359 359 362 360 362 363 363 362 357 355 356 356 352 350 349 349 346 344 342 337 337 337 339 338 336 333 329 328 329 329 330 330 329 329 329
357 355 354 356 362 362 363 361 358 357 356 356 356 353 351 349 349 348 346 345 344 338 337 333 333 335 336 335 333 332 331 330 327 327 329 328 328 328
352 353 350 345 348 354 356 356 353 356 357 356 353 351 350 348 347 347 343 339 339 337 336 335 335 336 335 333 333 333 332 332 328 327 326 327 327 327

GFSNE_850_thetae_066.txt.gz
Theta_e
342 344 343 343 341 341 341 342 342 343 343 345 344 345 343 344 344 343 343 342 343 347 348 348 349 350 350 350 351 351 350 350 349 346 345 345 344 340
337 342 342 343 342 342 344 343 343 343 343 343 345 342 342 345 344 344 342 345 349 350 350 351 350 353 354 353 349 354 355 356 357 355 351 346 344 343
346 342 333 339 340 344 346 346 346 345 344 342 341 339 340 339 340 342 348 350 351 351 351 344 347 350 344 348 359 359 356 354 354 354 354 354 351 348
344 344 337 333 333 340 343 347 348 347 346 346 344 341 341 345 341 349 351 350 352 346 336 337 338 348 357 356 356 355 353 358 352 354 356 355 355 350
348 349 347 346 347 346 339 343 348 351 351 350 349 348 341 341 340 350 349 348 343 334 336 340 356 356 356 356 356 354 349 354 353 350 347 348 349 347
344 348 349 351 346 346 346 344 343 344 343 345 346 343 339 341 350 347 340 335 334 334 337 352 357 356 356 356 355 356 354 350 348 341 340 346 348 347
334 339 342 344 346 347 348 346 345 345 344 345 344 343 341 338 339 337 340 345 334 338 342 354 357 355 356 352 346 343 342 339 334 332 333 334 337 340
336 333 333 334 337 340 345 346 346 347 347 347 343 342 340 341 339 346 347 347 344 337 348 355 357 356 356 345 342 341 336 333 330 330 330 331 331 331
337 337 337 335 334 335 336 339 343 344 346 346 348 347 347 342 348 348 349 349 343 345 354 357 356 356 351 344 344 337 334 330 329 330 330 330 330 330
338 338 337 336 337 337 337 338 338 337 343 350 351 345 348 339 347 351 346 343 346 352 358 358 357 357 349 344 341 338 332 331 330 330 329 330 330 330
337 339 340 340 340 341 344 341 337 335 333 335 339 338 338 342 347 344 342 349 351 356 357 359 359 355 348 346 343 340 333 332 330 330 329 330 330 329
337 337 339 342 342 343 346 346 343 337 336 336 338 339 341 342 344 346 350 352 353 359 358 360 358 351 347 348 343 339 333 331 330 329 329 330 330 329
339 337 336 338 341 343 344 346 342 339 340 340 341 344 344 345 346 351 354 356 357 359 358 360 356 349 346 344 341 338 333 331 329 329 329 329 329 329
341 335 335 337 340 343 345 345 344 343 344 344 345 346 346 346 349 354 357 357 359 358 358 356 349 347 345 343 341 338 333 329 330 329 329 329 329 328
340 337 336 339 342 345 347 347 346 346 347 348 347 347 345 346 350 357 357 359 358 360 358 352 350 343 342 341 341 337 333 329 330 330 329 329 328 328
347 345 345 347 349 349 349 348 347 350 350 348 347 346 347 350 355 357 358 358 359 357 354 351 349 343 340 342 341 337 334 331 330 330 329 328 328 328
343 350 355 354 354 354 353 352 351 350 351 350 348 345 348 352 357 357 358 358 357 354 353 349 349 342 343 342 341 337 334 329 329 330 329 328 328 328
353 352 354 354 355 356 355 355 353 351 349 348 346 347 350 357 357 358 356 356 356 352 349 349 344 341 344 342 341 336 333 329 329 330 330 329 328 328
356 356 357 358 356 354 354 352 347 344 345 346 346 346 357 357 356 357 356 356 353 350 349 345 341 342 343 341 339 336 330 330 329 329 330 330 328 328
360 361 360 357 356 355 354 358 359 357 355 350 348 352 359 353 355 354 354 353 349 349 346 344 340 341 342 339 337 333 329 328 328 328 329 330 329 329
359 360 356 354 354 355 355 355 354 354 355 357 359 360 360 356 356 355 353 349 349 348 345 344 337 337 338 337 335 332 330 329 328 326 326 329 330 328
358 357 355 355 356 355 353 351 351 350 351 354 357 360 355 354 355 349 349 349 348 346 344 340 336 334 335 334 334 332 331 331 331 329 327 325 328 329
355 353 352 353 353 352 349 349 345 340 335 333 354 353 353 351 351 349 347 345 344 344 341 338 336 334 333 335 334 333 332 332 331 332 329 327 324 325

GFSNE_850_thetae_069.txt.gz
Theta_e
341 342 342 344 342 342 341 340 341 342 342 344 344 344 344 342 344 344 343 342 342 349 351 351 350 345 349 353 346 346 358 357 357 357 357 355 352 346
338 341 342 343 343 341 343 344 342 342 342 342 342 343 342 341 341 344 346 345 348 350 349 347 337 338 342 351 357 357 355 354 353 356 356 356 354 352
337 336 339 341 342 342 341 344 346 345 344 341 340 340 338 340 338 342 338 349 349 349 346 335 339 351 356 356 357 357 356 352 355 351 347 349 349 352
342 343 339 339 334 340 339 342 345 347 348 346 343 343 342 340 338 336 340 347 348 342 335 339 348 356 356 356 355 355 354 348 348 344 346 342 345 347
343 345 345 344 338 336 335 337 339 344 347 349 347 346 343 341 335 337 344 333 332 337 336 341 354 356 356 356 355 351 346 339 343 337 331 332 334 343
337 339 346 348 347 344 345 347 347 344 342 344 343 339 338 337 339 336 331 332 333 335 336 348 356 356 355 355 348 337 339 336 332 330 329 330 330 330
339 335 334 339 345 347 347 343 346 347 346 344 342 341 337 334 336 339 342 343 332 339 340 353 354 355 355 352 342 341 337 333 330 329 329 329 329 329
341 338 338 333 333 336 339 341 342 345 345 346 345 344 340 338 339 344 345 346 343 338 345 353 356 356 354 348 342 343 337 331 329 328 328 328 329 330
342 339 338 338 337 334 333 336 338 340 342 343 344 341 340 340 344 343 345 349 348 340 349 354 355 357 354 349 344 341 337 331 329 328 328 328 329 330
344 341 339 338 338 340 340 338 337 337 337 339 340 336 344 341 346 346 348 348 345 345 352 354 355 356 354 347 344 342 337 331 329 327 327 328 329 329
336 334 337 337 336 339 342 342 342 340 337 337 336 335 337 336 339 342 343 347 348 352 353 356 356 356 352 347 345 342 337 331 328 327 326 328 329 329
331 332 332 333 334 336 342 345 346 342 342 340 340 340 341 342 343 344 347 349 350 352 354 355 354 356 351 347 346 341 336 330 327 326 326 328 329 328
333 336 330 329 332 334 336 341 342 343 345 345 344 344 342 341 342 344 345 348 350 353 357 357 356 358 350 347 342 339 334 330 327 326 326 328 328 328
339 339 337 335 334 334 334 336 340 343 346 346 346 344 342 339 343 345 347 348 352 356 355 356 356 352 349 343 340 338 334 331 327 326 328 328 328 328
346 346 345 342 341 338 334 336 340 344 347 347 344 341 341 342 345 346 347 349 355 356 354 357 356 349 348 343 340 340 334 331 327 326 328 328 328 328
351 349 347 345 344 341 339 341 345 347 348 346 344 342 344 346 346 346 348 352 357 356 356 354 356 350 347 343 340 340 337 333 327 327 329 328 328 328
351 350 348 346 346 343 342 343 346 350 351 348 346 346 348 348 348 346 350 356 356 355 356 356 354 348 347 342 342 341 338 333 328 328 329 329 328 328
355 353 350 348 346 345 346 347 348 350 351 352 350 348 348 348 347 349 352 356 355 354 355 355 352 347 344 341 341 340 336 331 328 328 329 329 328 328
358 357 355 353 351 349 348 351 353 352 353 353 353 353 353 351 349 349 355 357 355 353 354 354 347 346 341 341 340 340 334 329 327 327 328 329 328 328
359 357 355 352 351 353 354 356 355 356 356 356 356 357 357 352 350 349 356 355 354 355 354 348 348 345 341 340 341 337 332 328 327 326 326 328 329 328
358 359 358 355 356 357 357 357 357 357 356 354 355 355 354 354 350 351 352 351 351 353 350 348 347 343 339 339 338 335 331 329 329 328 326 325 328 329
357 356 358 356 358 359 358 355 354 354 353 352 349 351 350 343 345 344 342 347 350 351 348 347 344 343 338 336 337 334 332 331 330 331 330 327 324 327
354 355 356 356 357 356 354 353 352 351 351 350 349 349 344 340 339 337 336 331 349 349 346 345 343 340 337 334 333 334 333 332 332 331 331 331 329 327

GFSNE_850_thetae_072.txt.gz
Theta_e
339 341 342 343 344 342 342 342 341 341 340 341 344 344 343 342 341 341 342 343 340 349 350 350 342 335 341 355 356 356 354 353 354 354 355 353 354 353
340 340 341 342 343 343 342 342 344 344 343 341 340 340 341 341 340 341 342 339 345 351 349 341 336 338 355 355 355 355 356 356 354 352 349 346 343 344
341 336 338 341 341 342 341 341 341 343 345 343 343 342 340 341 340 338 335 335 346 344 339 336 337 350 356 355 355 355 354 353 348 340 336 333 332 333
341 340 336 336 337 339 337 338 340 340 342 344 344 345 344 342 340 335 333 340 336 331 337 335 344 354 356 355 354 353 345 338 334 332 329 329 329 330
339 341 344 345 344 342 337 337 338 339 342 341 342 340 341 338 332 333 333 331 334 338 335 340 351 356 355 355 354 346 338 333 331 330 329 329 329 328
340 337 339 342 344 345 345 343 343 345 347 346 343 340 338 336 336 335 332 336 333 335 335 342 355 356 355 355 350 341 336 334 330 329 328 327 327 328
346 343 338 335 336 341 346 346 347 345 344 343 342 340 336 335 337 339 344 343 334 334 337 342 353 355 355 354 350 341 337 335 331 329 327 326 326 328
345 345 344 343 340 338 335 335 339 341 341 342 340 339 335 337 337 344 345 346 341 335 344 344 353 355 355 354 350 344 339 336 332 329 327 326 327 329
341 341 342 341 340 340 340 340 337 336 336 337 337 335 335 336 338 343 345 345 342 337 344 348 352 354 355 353 350 344 342 337 332 328 327 326 328 328
333 332 335 338 339 339 339 339 340 341 339 338 338 337 336 336 338 343 342 341 340 338 345 351 353 353 353 353 351 344 342 337 332 327 326 326 328 328
330 332 328 329 331 332 336 337 337 339 340 339 339 338 336 337 339 343 344 345 343 342 346 352 354 355 353 353 350 346 343 338 331 327 326 327 328 328
326 326 327 327 327 328 330 331 335 335 339 341 341 342 343 343 344 345 346 346 345 347 348 352 354 355 354 353 350 347 340 337 332 327 325 326 328 328
337 332 330 329 328 328 330 332 331 332 335 340 341 342 343 343 342 343 343 344 345 346 348 351 354 354 352 356 350 346 339 337 333 327 325 326 328 328
343 339 338 336 332 332 334 333 331 333 336 337 339 341 341 340 337 339 340 344 346 347 348 352 354 355 352 353 349 346 340 338 333 327 325 326 327 328
348 344 342 341 342 340 339 339 341 341 339 339 339 340 341 341 341 339 342 345 346 347 348 353 353 353 353 352 348 346 339 339 333 328 325 326 327 328
352 351 349 346 345 345 345 345 344 341 338 338 340 342 344 344 343 342 345 347 347 346 348 353 354 355 352 351 348 346 340 340 335 328 326 327 327 328
353 352 352 351 349 346 345 342 339 339 340 340 341 344 346 346 344 343 347 349 347 346 350 353 353 354 355 353 347 345 340 340 335 328 326 327 328 328
354 354 354 352 352 351 349 344 339 337 337 340 343 346 348 349 348 347 349 349 347 349 351 355 356 356 353 352 347 344 340 340 335 328 326 326 328 328
355 356 356 356 354 353 351 347 341 339 342 346 349 351 352 353 354 353 352 352 350 349 353 356 357 352 354 348 347 343 340 339 332 327 326 325 327 328
356 356 356 356 357 356 354 352 350 350 350 351 353 354 355 355 355 355 354 351 349 348 353 356 353 350 350 348 344 341 339 338 330 327 326 324 325 328
357 357 354 355 355 355 355 355 353 352 353 356 356 356 356 354 356 355 355 349 347 349 352 350 350 350 347 345 343 342 338 336 329 328 329 327 324 324
359 359 356 356 356 356 357 356 355 356 356 356 354 353 353 353 352 352 352 350 348 350 350 349 348 348 345 346 344 340 336 335 330 329 330 330 328 325
359 358 358 356 355 355 355 356 354 355 356 355 353 353 353 353 352 349 338 335 336 345 346 338 342 346 344 344 344 338 336 336 333 331 331 331 331 330

GFSNE_850_thetae_078.txt.gz
Theta_e
349 342 345 346 348 349 348 348 347 346 345 348 346 349 350 350 352 345 350 339 334 335 333 336 333 333 345 354 355 355 353 346 341 336 331 330 329 329
349 349 347 347 348 348 348 348 348 347 346 346 348 350 348 346 351 342 340 339 347 344 335 336 334 334 349 354 354 354 349 340 336 333 330 329 328 327
350 351 349 349 348 346 347 347 348 348 348 345 347 348 350 350 341 335 343 343 346 347 340 335 334 335 350 353 354 353 348 341 338 336 332 328 326 326
351 352 351 348 343 344 348 349 348 349 349 349 346 348 352 351 352 336 349 348 349 350 343 339 342 340 350 352 353 353 351 344 341 338 331 327 326 326
352 353 351 351 351 347 351 349 349 350 350 349 349 348 349 352 353 352 350 350 348 347 346 345 346 347 351 352 353 353 351 345 342 339 332 327 326 327
353 354 353 351 351 352 352 353 351 351 349 349 349 349 349 351 352 349 346 345 347 348 348 346 346 349 355 356 352 353 352 347 342 340 332 327 326 327
352 353 352 351 343 345 349 350 352 352 350 349 349 349 349 348 349 346 346 346 345 346 349 348 345 348 355 358 350 351 351 346 344 336 331 327 326 327
354 354 347 348 344 344 342 339 340 348 349 346 344 344 346 347 346 346 346 345 345 344 347 345 345 346 354 359 352 352 350 349 342 335 331 327 326 327
354 354 352 349 348 344 343 342 340 339 340 340 345 343 341 343 346 350 349 350 347 346 346 348 348 348 353 358 352 352 350 350 348 337 332 328 326 327
349 351 353 351 349 351 348 350 346 341 337 338 338 336 336 340 338 347 352 348 348 349 347 348 349 348 353 359 357 350 349 349 350 344 333 328 325 326
332 334 341 346 342 340 340 345 346 347 346 346 339 334 334 334 338 344 347 346 344 343 343 344 346 347 351 354 358 352 352 349 348 349 335 329 326 326
347 342 334 331 330 329 330 332 336 335 345 343 344 342 333 331 333 338 340 348 345 344 343 346 345 345 349 352 359 356 354 352 348 349 337 331 326 325
350 350 350 349 345 342 338 332 328 327 339 341 343 344 344 345 349 347 339 339 345 343 342 346 347 347 348 351 355 357 355 352 348 348 339 333 327 325
351 351 351 351 351 348 343 343 342 339 340 339 339 340 341 342 341 344 350 346 341 338 340 343 347 346 347 350 352 355 356 351 348 348 339 334 329 326
352 353 353 354 354 352 348 345 345 345 343 345 344 342 342 342 342 344 347 350 345 336 337 340 341 351 354 353 352 353 359 354 349 349 345 336 331 326
352 352 352 353 353 353 352 350 346 344 346 348 347 345 345 345 345 347 348 348 350 351 352 349 343 345 352 354 354 355 357 355 350 348 346 338 333 327
352 353 353 352 353 354 354 353 353 350 347 349 349 349 349 349 350 349 348 348 348 348 349 350 352 347 346 346 353 355 356 355 352 347 346 339 335 327
352 352 354 355 355 356 356 356 355 354 354 352 351 350 350 349 350 350 348 348 349 350 351 350 352 354 351 347 346 354 355 354 353 348 346 339 336 330
350 352 354 355 357 357 356 356 356 356 356 356 356 354 352 351 350 349 349 349 351 351 352 353 353 355 355 352 349 350 354 354 350 346 345 340 336 333
349 350 352 355 356 357 354 355 357 357 357 355 355 354 356 353 351 351 351 351 352 353 354 355 355 353 355 353 348 351 351 352 351 346 343 340 336 328
345 349 348 353 355 355 355 356 356 356 357 358 359 358 357 355 353 352 352 352 353 355 356 356 356 355 355 354 352 353 353 353 349 345 343 339 333 328
347 345 345 349 352 355 355 356 356 358 358 357 355 356 357 356 356 356 355 355 356 356 356 357 357 355 353 356 354 353 352 352 349 345 342 338 333 332
347 350 349 352 345 347 355 356 357 357 357 357 359 358 357 356 356 359 360 360 358 359 359 356 355 353 353 354 354 350 352 349 348 345 342 337 331 329

GFSNE_850_thetae_084.txt.gz
Theta_e
344 335 341 347 346 344 346 342 346 348 349 348 345 349 351 351 347 343 346 337 341 351 349 349 346 343 345 351 351 352 350 346 342 339 337 330 326 326
344 349 338 342 346 350 348 347 347 346 347 349 347 349 348 348 345 342 341 333 348 349 350 349 347 345 345 352 354 351 351 348 344 341 338 330 326 326
346 348 349 340 341 350 349 343 344 346 347 346 349 350 348 346 346 349 349 341 350 349 349 346 348 347 345 348 355 351 350 350 342 342 333 329 326 325
347 345 348 349 342 343 349 350 350 348 349 348 347 346 338 350 349 351 351 350 348 348 347 345 348 347 345 345 352 350 350 349 348 340 333 329 326 325
350 349 348 348 347 345 341 346 347 346 346 348 352 354 351 346 348 351 350 352 347 346 347 346 345 346 343 345 347 355 354 350 348 348 337 329 326 325
351 351 351 350 351 349 346 345 347 348 350 351 351 348 349 349 351 351 353 351 344 348 344 344 346 344 342 347 346 356 355 351 348 348 346 331 326 325
349 352 353 350 346 350 350 345 350 349 352 349 351 350 351 353 352 349 348 346 346 344 338 347 345 341 348 347 349 351 354 353 351 349 347 335 327 325
349 348 346 352 355 355 354 346 339 350 350 350 350 351 351 349 346 345 346 343 334 337 340 331 343 348 349 349 347 347 354 353 355 351 347 341 328 325
352 351 349 352 349 349 349 349 347 343 339 337 337 335 332 330 334 334 335 336 338 336 344 348 346 345 347 347 345 347 349 353 352 352 351 345 331 326
345 350 353 351 346 350 353 353 353 353 350 345 344 340 338 338 339 340 342 341 341 340 347 349 344 346 345 345 345 344 347 352 351 351 352 347 334 327
345 343 343 345 348 348 343 346 350 354 355 351 347 346 344 344 344 346 346 345 342 335 333 335 341 342 344 344 344 345 346 351 353 353 350 351 341 331
352 350 347 345 344 343 343 349 348 332 336 342 350 349 347 347 346 346 345 342 341 344 336 340 344 345 345 343 344 344 343 345 349 354 350 352 347 335
352 352 352 350 348 349 349 349 347 345 342 343 345 342 344 345 343 345 342 342 342 343 342 343 343 339 343 345 348 344 343 344 352 353 353 351 350 344
352 353 352 353 354 353 353 351 350 350 350 349 351 352 351 351 349 348 345 343 342 343 344 345 346 347 346 345 339 341 348 349 356 354 352 351 352 352
351 353 352 352 350 351 351 353 352 351 351 351 351 351 351 350 348 347 343 340 339 340 341 343 343 345 348 349 345 339 341 347 349 352 352 353 353 352
350 349 351 351 350 350 351 351 352 353 354 353 353 353 353 353 350 347 348 346 343 343 343 346 349 350 350 348 349 350 350 351 354 354 353 350 353 352
343 347 349 350 350 349 351 352 353 352 352 354 354 354 354 353 351 351 348 347 347 348 348 348 347 347 348 350 350 349 350 352 350 352 353 352 352 352
326 329 334 344 347 347 346 352 353 355 354 354 355 354 354 354 353 351 352 352 350 349 349 349 348 350 350 349 349 350 350 349 350 351 354 353 351 351
321 326 326 329 339 343 341 338 343 351 353 353 354 354 357 357 354 353 352 348 350 352 352 352 351 351 351 351 352 354 355 354 355 353 349 351 351 350
320 320 324 325 329 339 342 344 342 346 350 353 355 355 354 356 354 355 355 354 353 352 350 350 352 352 351 349 350 350 352 355 354 352 350 350 353 352
325 326 326 332 328 337 343 345 345 347 348 344 352 352 354 353 353 353 353 352 352 353 355 354 352 352 351 353 355 354 352 353 352 352 352 349 351 352
329 330 329 335 338 339 339 340 339 340 340 345 349 348 349 352 353 352 353 353 353 352 351 352 354 353 354 353 352 352 352 352 350 349 349 350 352 351
319 321 324 326 332 337 342 346 350 345 337 342 347 347 344 348 351 353 352 352 353 353 354 352 352 351 350 350 350 351 350 351 352 351 350 349 349 351

GFSNE_850_thetae_087.txt.gz
Theta_e
335 333 335 343 346 345 346 342 345 345 347 348 347 350 351 351 349 346 342 343 341 348 350 349 346 346 345 346 353 349 349 348 341 339 338 331 327 325
343 340 334 339 344 347 348 347 346 346 346 347 347 351 349 349 348 344 346 347 345 346 348 350 346 348 344 345 349 350 350 347 347 340 334 330 326 325
346 345 344 337 338 343 348 343 342 346 348 345 345 346 345 346 345 337 346 349 347 347 347 347 346 347 345 344 345 352 354 349 347 347 341 331 326 325
345 342 343 347 341 337 342 349 347 348 348 348 347 345 343 338 340 346 349 350 351 346 347 346 346 345 344 342 345 347 356 351 349 348 347 336 326 325
349 348 347 345 341 342 340 343 346 345 348 347 346 345 345 343 348 349 351 352 351 345 344 346 343 346 345 342 347 347 353 353 352 350 347 343 328 325
347 352 351 349 347 345 345 342 338 336 340 343 346 349 349 346 350 350 349 351 351 349 340 334 338 345 342 347 348 347 348 353 354 351 350 346 331 326
347 346 348 349 349 350 349 347 346 338 339 340 342 349 349 353 352 350 346 345 345 331 328 328 335 340 344 348 349 348 346 352 353 351 351 349 338 326
347 348 347 347 349 352 353 354 351 346 342 335 340 346 342 339 337 332 331 331 332 327 330 328 344 344 345 345 348 347 344 348 352 352 351 350 344 328
351 350 350 349 349 347 348 346 348 349 349 348 346 345 342 338 338 337 336 337 338 335 336 331 327 336 343 345 347 345 343 343 348 351 352 351 350 336
350 349 350 352 350 348 348 349 352 350 349 349 351 349 348 343 341 344 346 346 343 337 339 338 334 329 338 343 345 344 343 344 346 351 351 351 350 346
347 348 347 345 344 344 347 346 344 343 342 343 341 341 341 346 347 348 346 346 345 333 336 337 341 335 331 343 343 344 343 342 344 348 350 353 351 348
352 351 350 349 348 347 347 345 344 343 344 344 344 345 344 342 345 346 346 343 344 338 333 341 341 343 344 340 336 345 347 345 342 340 347 353 351 351
351 351 352 354 353 351 349 351 351 352 351 350 350 349 349 349 348 348 349 350 347 345 337 338 340 343 345 345 344 344 344 342 340 344 351 355 352 352
349 350 351 352 352 353 354 353 353 353 353 353 352 351 350 350 350 350 350 350 349 349 347 346 345 346 348 348 345 346 347 341 337 341 347 353 353 353
348 350 350 350 350 350 351 350 351 353 353 352 352 352 351 351 351 351 352 352 352 350 346 344 343 339 343 344 345 348 348 348 349 349 354 354 354 354
339 344 345 348 349 348 348 349 348 348 349 349 350 350 352 353 353 353 353 352 352 349 341 344 343 342 344 347 349 349 348 350 348 349 347 350 354 352
323 327 331 335 339 338 343 348 349 349 350 351 352 352 352 352 352 351 352 353 352 349 346 347 348 348 347 347 348 349 349 347 347 348 351 351 353 352
317 319 322 322 323 328 328 331 346 347 348 350 352 352 352 355 354 353 353 353 352 350 351 351 349 348 348 348 348 349 349 349 349 350 349 351 352 349
317 316 316 317 320 320 324 325 329 337 340 342 342 341 349 351 352 352 351 352 352 351 351 352 352 351 351 351 351 351 351 349 349 350 354 350 351 351
317 317 316 318 320 322 325 327 328 332 344 345 345 345 347 348 350 349 344 350 351 352 353 353 351 351 353 352 351 350 350 349 350 352 351 352 352 351
323 325 328 329 332 335 334 335 337 338 339 341 344 344 342 341 342 344 340 343 349 351 352 353 353 353 353 351 352 351 351 354 352 352 351 351 351 352
319 322 324 325 325 324 324 326 332 340 342 345 345 341 340 342 340 339 344 347 348 348 349 350 351 352 351 351 353 352 352 352 351 351 352 352 350 349
314 316 317 317 317 316 320 328 330 327 335 338 340 344 344 340 342 345 347 343 345 347 349 349 349 349 350 351 352 352 352 351 350 350 350 350 350 350

GFSNE_850_thetae_090.txt.gz
Theta_e
334 335 335 335 341 345 348 346 346 347 346 347 348 351 351 350 348 347 344 346 350 349 349 350 349 347 346 343 344 351 351 347 347 347 342 335 329 325
341 339 335 332 338 344 347 348 345 345 345 346 347 347 346 346 345 342 338 349 350 347 346 346 345 346 346 343 343 345 354 350 348 347 346 342 330 325
344 338 337 337 338 339 344 346 347 346 345 344 345 345 343 343 341 340 346 349 350 349 345 344 346 344 346 343 343 346 350 353 351 350 347 346 334 325
346 340 340 345 342 339 339 340 343 347 346 346 346 345 345 343 341 346 348 349 351 350 346 347 341 338 344 344 345 347 347 353 353 351 349 347 339 326
346 348 343 341 341 338 336 337 338 343 343 341 343 346 345 343 343 345 350 349 348 348 347 342 326 332 343 344 344 347 347 349 353 353 351 349 343 329
344 346 349 351 347 346 347 347 343 339 337 335 334 337 340 338 342 352 352 351 347 342 336 327 327 337 337 338 346 348 348 347 351 353 351 350 348 334
350 348 346 345 348 348 348 349 351 348 345 346 337 336 338 338 341 340 338 333 329 329 327 325 328 341 345 346 346 346 347 345 347 349 352 351 349 343
347 349 348 349 347 348 347 350 349 348 348 349 349 348 347 344 342 342 339 337 338 331 338 329 330 328 330 342 343 346 345 343 344 345 351 352 350 347
353 352 351 350 350 348 348 348 347 348 349 352 352 351 350 346 347 343 339 342 342 339 340 332 328 330 337 330 343 345 344 343 341 344 348 351 351 348
350 351 350 348 347 346 347 346 342 342 344 348 349 346 345 344 345 345 346 342 339 338 341 335 327 331 341 328 338 344 344 344 342 343 345 348 352 348
347 346 348 349 349 349 349 347 345 343 343 343 343 343 343 345 349 349 350 349 346 342 342 340 331 333 339 341 341 337 339 344 346 344 342 341 350 351
350 348 350 350 349 348 349 349 349 347 347 347 346 347 349 349 349 348 348 348 347 346 345 347 344 343 341 339 342 345 344 343 344 343 343 341 348 352
349 350 350 350 350 350 350 350 350 351 350 350 351 351 350 350 350 349 349 349 349 350 349 350 349 348 349 347 344 344 344 343 347 343 342 346 350 349
345 347 348 349 349 349 350 349 349 350 353 353 352 351 351 350 350 350 350 350 350 351 351 351 351 350 348 347 345 340 340 344 346 348 346 339 344 348
335 339 340 341 344 345 346 348 349 349 349 350 350 350 351 352 351 349 350 351 352 352 352 352 352 351 351 348 347 343 342 346 348 349 349 349 352 353
318 319 322 330 334 337 336 335 337 339 344 348 349 349 349 348 350 350 350 351 351 351 351 352 352 348 346 347 345 344 343 345 346 348 348 347 348 347
318 318 317 317 320 323 324 323 323 327 327 334 346 351 351 351 351 351 352 352 352 352 352 352 352 348 347 348 347 347 347 348 347 348 348 347 346 349
318 317 316 316 315 315 316 318 320 322 325 326 329 336 340 342 345 344 341 350 351 351 350 350 351 350 352 351 348 347 347 346 347 347 348 350 349 349
318 317 317 315 314 316 318 322 325 328 332 335 336 342 344 343 342 343 344 346 349 350 349 348 349 350 351 351 351 350 350 350 350 350 350 348 351 352
315 315 316 317 317 320 327 331 333 333 334 331 337 338 339 342 345 345 342 342 342 348 345 347 347 348 349 351 350 350 351 352 351 350 350 349 351 350
315 316 317 319 321 323 326 323 325 329 328 330 338 341 341 343 341 340 341 341 341 341 341 341 343 345 346 347 349 349 350 349 350 351 351 351 350 352
304 306 310 313 315 317 319 320 322 322 326 329 329 332 336 337 338 339 342 340 341 339 339 344 341 340 347 346 347 348 348 349 349 349 349 350 351 350
302 303 304 305 307 312 314 315 317 318 319 318 319 323 326 327 328 330 330 336 344 341 340 341 343 344 346 347 347 348 348 348 348 348 349 349 349 350

GFSNE_850_thetae_093.txt.gz
Theta_e
335 336 337 336 335 342 345 347 345 345 345 346 347 350 349 347 344 342 340 336 348 348 345 344 345 344 343 344 341 344 347 353 350 349 347 345 335 326
341 341 337 336 334 337 343 344 347 345 345 345 345 345 345 343 342 341 339 341 349 350 349 346 346 344 340 344 341 345 346 349 353 351 350 347 341 327
344 341 341 340 341 340 340 341 342 344 345 344 344 345 344 344 343 340 345 347 348 350 350 349 345 329 329 343 342 345 346 347 351 352 351 349 346 330
348 346 342 342 345 344 344 340 339 340 342 345 344 344 345 345 344 344 341 348 349 348 346 344 333 328 332 336 339 343 346 349 347 352 352 351 349 338
343 343 345 346 345 344 342 342 342 344 343 341 341 341 342 337 336 335 338 349 350 350 346 333 327 328 345 345 340 345 347 348 346 349 352 352 350 346
346 347 343 346 347 346 346 345 349 349 347 344 340 337 337 337 337 337 337 335 334 329 327 328 328 329 341 344 345 346 345 346 344 345 348 352 351 349
345 347 348 347 345 344 345 345 348 348 350 350 347 347 346 346 345 344 342 336 330 330 330 329 329 327 326 328 340 343 344 344 343 343 346 351 352 350
347 346 345 348 349 349 348 348 345 347 347 349 346 348 348 348 348 348 347 345 342 335 334 327 327 325 326 337 331 338 342 343 343 339 342 346 349 350
344 348 350 350 349 349 348 347 349 349 348 348 348 348 350 347 346 343 344 344 340 334 339 329 329 328 331 338 334 332 342 342 343 341 341 342 341 350
347 346 346 347 349 349 349 347 345 344 345 344 343 341 341 342 342 343 343 344 344 344 346 343 337 336 336 332 340 337 336 342 341 344 345 343 341 342
348 347 349 348 346 346 347 348 348 347 347 348 347 347 347 346 345 346 347 348 347 346 347 348 342 344 339 333 334 339 341 343 342 343 343 343 344 340
348 348 349 349 348 348 348 349 349 349 349 348 348 348 347 347 349 350 350 350 350 349 347 349 349 350 350 341 336 336 340 341 341 343 345 345 341 342
345 346 347 348 348 349 349 349 350 349 350 350 350 349 348 348 348 349 350 351 351 351 349 350 350 350 350 350 349 340 340 340 337 339 344 347 343 342
331 336 338 340 341 341 341 342 343 345 347 348 348 348 348 348 347 348 350 351 351 350 349 351 350 350 351 351 351 348 341 340 340 340 345 347 348 344
319 319 323 324 326 330 330 331 332 332 332 337 339 343 346 348 348 348 347 347 349 348 349 350 351 351 351 351 352 351 347 338 340 341 347 346 347 348
317 318 318 318 317 317 318 319 320 321 322 322 326 328 331 341 348 349 350 349 351 349 350 351 351 352 352 352 352 349 346 347 344 343 344 345 347 347
314 314 314 314 313 314 315 315 316 317 320 323 325 326 326 329 338 342 342 344 347 344 343 346 350 350 350 351 351 350 348 347 347 346 347 347 347 346
315 315 315 315 314 314 314 312 313 318 325 328 330 332 332 333 338 340 341 342 342 343 343 342 345 351 349 348 350 350 351 350 346 346 346 346 347 346
310 311 312 312 312 313 314 316 317 320 323 329 331 332 332 338 338 339 341 344 344 345 342 342 342 344 347 346 347 348 349 349 350 350 351 349 349 349
304 304 305 308 312 314 314 316 319 321 324 327 332 332 335 337 337 338 339 339 338 339 341 340 340 340 343 341 341 345 346 347 348 349 349 351 351 350
302 302 302 303 303 305 309 313 315 317 319 321 322 324 328 326 331 333 334 335 335 337 339 341 341 341 340 344 344 342 344 345 346 346 346 348 349 350
301 301 300 301 301 301 302 303 304 308 311 314 315 317 319 319 320 321 322 324 327 326 326 329 341 342 342 341 343 343 341 345 345 347 348 348 348 347
299 299 299 299 300 300 301 301 303 304 307 309 309 311 312 314 315 316 316 318 321 322 317 317 323 332 341 342 341 343 343 345 346 347 347 347 347 347

GFSNE_850_thetae_096.txt.gz
Theta_e
337 337 336 337 337 335 343 344 346 344 344 345 347 347 345 344 343 342 341 340 344 348 349 348 348 347 329 343 342 343 345 346 349 352 351 349 345 330
338 339 340 339 338 336 335 342 343 345 345 345 344 344 344 343 343 344 343 342 345 348 349 350 348 342 327 335 343 341 344 347 347 349 352 351 348 337
341 343 341 342 340 341 341 341 341 341 342 343 344 344 343 343 343 343 342 341 345 348 348 348 347 331 329 342 336 339 342 347 347 346 350 352 350 345
344 346 345 344 342 344 344 345 342 341 341 340 340 341 340 339 337 334 336 337 345 350 349 348 331 327 333 338 344 342 345 346 346 343 346 351 351 348
343 343 343 342 345 345 346 346 346 347 349 349 346 341 339 337 336 337 337 338 336 334 331 328 329 331 331 330 332 343 345 344 344 343 343 347 350 350
345 343 345 345 344 345 346 346 344 348 348 348 350 350 347 344 347 347 345 343 336 333 331 331 330 331 328 328 329 328 341 342 343 341 342 344 347 350
346 347 345 346 347 345 345 344 345 346 347 347 347 348 345 345 348 349 346 340 333 331 328 327 326 325 327 328 332 334 332 341 343 342 338 341 343 346
344 346 346 344 345 347 349 349 348 349 349 348 347 346 345 345 344 344 341 342 341 333 337 330 331 330 334 333 332 332 329 339 343 342 342 341 341 339
344 343 343 347 348 348 348 348 347 347 346 348 349 347 347 344 345 344 344 344 344 341 343 340 339 337 340 338 334 337 331 337 342 343 342 343 343 342
346 346 346 345 345 345 346 347 347 347 347 347 347 346 346 345 346 346 346 346 345 346 348 348 345 345 345 342 340 336 341 338 339 341 341 341 341 341
346 347 347 347 345 345 346 346 346 347 347 347 346 345 345 346 347 348 347 348 348 348 349 350 347 349 349 345 344 341 337 340 342 343 343 343 345 344
345 345 345 346 346 347 348 348 347 347 347 348 348 349 348 347 348 349 348 350 350 350 349 350 350 350 350 350 349 349 349 345 341 342 339 339 343 346
336 340 340 340 340 340 341 340 338 341 344 344 345 346 347 347 347 347 349 349 350 350 349 350 350 349 349 350 349 349 349 348 347 341 341 339 344 345
322 320 320 323 324 323 326 329 326 327 329 332 334 336 341 343 344 344 346 347 348 347 346 347 349 348 349 350 350 350 349 349 349 343 339 340 342 346
319 318 318 318 318 318 317 317 317 317 319 321 323 324 326 329 331 331 337 346 348 347 347 347 349 350 351 351 351 350 350 350 349 339 340 340 343 347
315 313 313 312 313 313 313 313 314 314 316 320 323 325 326 325 326 329 331 337 343 346 347 347 346 342 342 346 349 350 350 349 349 343 344 344 343 344
311 311 311 311 311 311 311 311 311 312 312 316 321 326 328 330 330 336 337 338 342 342 342 342 343 344 344 348 348 351 349 348 349 347 345 346 346 346
305 306 306 306 306 307 307 308 309 310 312 314 317 324 330 332 335 338 339 341 343 342 344 343 344 344 343 344 343 343 345 346 346 348 350 349 346 345
303 303 303 303 304 304 304 305 306 308 310 313 317 318 321 327 329 331 332 334 337 338 340 340 339 340 341 341 340 339 340 341 343 347 349 349 349 349
302 302 302 302 302 302 302 302 303 303 304 306 311 313 314 316 317 323 327 328 330 332 332 334 333 335 336 336 339 341 340 341 341 342 344 345 347 348
301 301 301 301 301 301 301 301 301 301 302 303 307 308 310 311 312 313 316 319 321 322 324 327 328 326 325 324 337 342 342 341 340 342 342 343 346 346
300 299 299 299 299 299 300 300 300 301 301 301 301 301 303 306 308 309 309 310 311 313 314 317 318 317 319 320 318 326 337 341 341 340 343 344 345 343
297 297 297 297 297 297 297 297 297 298 298 299 299 299 303 304 305 306 307 307 308 310 311 311 311 313 313 316 319 315 324 336 341 341 342 343 343 344

GFSNE_850_thetae_099.txt.gz
Theta_e
336 338 338 337 338 337 336 341 344 348 347 347 348 346 344 343 343 343 344 343 344 347 349 349 348 344 329 336 341 342 342 345 348 347 351 351 349 342
340 337 337 337 336 337 337 335 339 345 346 348 347 344 343 343 344 342 340 340 340 346 348 348 348 343 328 341 340 336 339 346 347 346 347 351 350 347
340 340 342 340 340 341 339 339 339 340 347 345 343 340 341 341 339 336 334 340 346 341 348 348 344 330 330 335 336 343 341 345 345 346 343 347 350 348
342 343 344 345 343 341 343 343 344 343 343 348 348 346 341 340 340 340 340 346 343 341 335 331 330 332 333 333 330 329 340 344 343 345 343 344 348 348
341 341 341 342 341 344 343 342 348 346 345 348 349 351 347 345 342 345 343 340 343 342 338 333 331 330 332 330 329 327 331 333 342 344 341 343 345 348
344 343 343 343 344 342 345 343 344 344 344 347 349 350 351 349 345 349 350 348 344 334 337 336 329 328 328 329 330 330 334 333 339 343 341 338 342 339
343 343 344 343 344 346 346 343 343 343 343 348 349 350 349 349 350 350 349 347 345 346 334 344 346 341 345 341 336 333 337 330 336 343 342 341 341 340
343 342 342 342 344 342 345 347 349 348 347 348 350 350 351 352 350 350 350 349 348 347 346 340 345 349 350 349 343 337 337 332 340 343 343 342 343 343
343 343 343 343 343 345 346 346 347 347 348 347 347 347 347 347 346 345 349 348 349 346 345 349 349 351 350 350 347 345 336 339 337 340 341 342 342 341
344 345 347 346 345 346 346 346 345 344 345 346 347 346 347 347 347 348 348 346 347 350 352 351 351 352 351 348 346 347 343 339 341 341 343 343 343 343
343 343 344 345 344 344 345 345 346 347 347 347 347 347 346 347 348 349 349 352 352 351 352 353 351 352 350 350 348 348 348 348 348 346 343 343 341 340
341 340 340 340 340 340 341 342 343 343 344 344 345 346 345 346 346 348 348 349 352 353 351 353 352 352 351 350 352 352 352 348 347 347 349 347 342 340
335 332 329 326 332 328 329 330 333 334 335 336 337 336 333 334 338 341 342 346 347 350 351 351 351 350 351 351 351 352 353 353 352 349 349 348 346 342
327 325 324 321 322 319 318 317 317 317 319 320 327 331 331 336 338 335 330 330 335 345 348 349 349 349 350 349 352 351 351 353 353 352 350 346 339 339
319 321 320 320 316 313 313 314 313 313 314 322 325 325 324 323 324 327 329 329 338 342 344 345 346 347 348 350 349 349 349 349 351 352 351 350 348 343
315 314 313 312 311 311 311 311 311 311 312 320 322 315 317 322 329 331 329 338 340 341 340 345 345 345 345 347 348 349 351 351 347 351 352 351 351 345
306 306 306 306 305 305 305 305 306 307 309 309 311 313 322 321 319 322 326 330 336 337 340 341 343 343 344 344 345 346 347 349 349 349 349 350 352 351
303 303 303 303 303 303 303 303 304 304 304 304 305 308 315 315 316 316 320 321 327 331 335 335 336 337 338 339 342 345 344 345 345 346 346 349 349 352
302 302 302 302 302 302 302 302 302 302 302 303 303 304 309 313 313 315 316 317 315 317 322 324 328 331 333 335 334 336 338 337 337 342 344 346 347 348
301 301 301 301 301 301 301 301 302 302 302 302 302 302 304 307 307 308 307 310 311 311 310 313 319 322 325 325 325 329 331 331 334 340 343 344 345 345
301 300 300 300 300 300 299 299 299 300 300 300 301 302 303 305 307 308 308 307 307 307 308 310 312 314 314 317 319 321 323 325 324 327 331 336 342 344
299 299 299 299 298 298 298 298 298 298 298 299 299 299 300 301 302 302 304 306 306 306 305 304 304 306 309 312 315 316 317 319 318 316 319 320 335 342
298 297 297 297 297 296 296 296 295 296 296 296 296 297 297 298 298 298 298 300 303 304 304 303 303 306 306 305 307 310 313 315 318 320 317 316 317 339

GFSNE_850_thetae_102.txt.gz
Theta_e
349 340 345 348 348 348 348 347 347 346 345 349 347 349 349 347 346 347 347 348 338 341 344 347 348 346 337 329 341 337 338 341 346 347 346 349 351 348
347 350 338 347 348 347 347 346 347 346 345 344 345 349 350 346 345 347 346 343 345 346 339 341 345 337 331 331 334 338 339 341 345 345 346 345 350 350
348 350 349 345 346 346 345 346 346 346 346 342 344 344 351 351 350 350 346 345 344 346 340 335 332 332 334 334 332 330 328 335 344 344 345 344 347 348
349 350 350 348 350 349 348 349 347 349 347 347 347 347 348 350 350 352 349 346 347 347 341 338 334 331 329 330 330 328 328 329 332 342 344 341 344 345
349 350 349 350 350 349 349 350 347 349 349 349 348 346 347 348 348 348 350 349 346 343 343 341 341 336 333 331 330 330 331 331 334 336 344 340 339 342
351 350 350 350 351 350 350 350 349 349 348 349 347 347 347 347 349 347 345 345 345 345 345 346 346 346 347 347 342 338 334 333 331 334 343 343 340 340
351 350 350 350 345 345 347 347 346 349 349 348 347 347 346 351 347 347 346 346 346 346 346 348 346 347 348 349 350 346 341 334 332 332 342 343 343 343
351 351 350 348 348 343 344 343 345 347 349 349 348 347 350 349 347 347 348 348 349 347 349 349 348 348 349 349 350 346 345 338 336 333 340 342 342 343
351 351 351 346 341 342 343 344 346 346 344 344 346 351 351 350 350 350 352 352 352 352 352 350 350 349 349 349 351 349 347 344 338 340 340 340 341 342
343 343 344 343 343 343 344 344 346 349 352 350 348 347 347 347 347 348 348 349 353 353 351 351 350 350 350 350 352 353 349 348 349 349 345 342 341 341
344 343 343 341 341 340 340 340 341 343 343 343 346 346 345 346 347 346 349 350 353 353 353 352 354 355 353 350 351 352 352 353 353 350 349 348 348 348
341 339 338 337 336 337 337 336 337 338 337 338 337 338 338 339 339 341 347 349 349 351 352 351 351 353 352 352 352 352 353 353 353 353 353 352 350 350
335 332 331 330 326 324 323 322 322 323 323 333 335 337 338 340 342 344 344 345 345 345 347 348 347 348 351 352 352 352 353 353 353 354 355 353 353 350
331 329 325 322 320 318 317 316 315 317 326 328 331 333 335 335 335 335 336 336 339 341 343 344 347 348 346 347 351 352 352 352 351 352 353 354 353 353
325 321 321 319 316 317 315 311 314 322 322 323 326 328 328 327 326 336 330 326 332 334 344 343 342 342 345 345 346 349 350 351 352 352 351 351 353 352
317 315 313 311 311 312 316 318 319 318 321 323 322 320 322 325 326 326 325 326 327 328 332 334 341 342 340 343 344 345 348 348 349 350 347 350 350 351
307 305 305 305 306 308 313 311 312 308 311 311 313 314 316 318 319 320 319 320 322 323 323 326 328 328 330 333 339 340 341 345 345 345 344 345 346 347
303 304 303 303 303 303 303 303 304 304 304 304 306 309 313 315 316 315 317 318 319 318 318 318 318 319 321 324 327 333 335 335 337 337 336 337 340 344
306 306 307 306 305 304 304 305 304 303 302 303 303 305 308 309 310 311 312 312 312 312 313 312 313 315 318 319 322 325 326 326 325 326 331 336 338 341
304 305 304 304 304 304 304 304 304 305 304 304 305 305 305 305 305 307 308 310 310 310 310 310 311 312 313 313 313 308 312 316 319 323 326 328 329 329
303 302 301 301 301 301 301 302 302 302 301 303 303 303 303 304 304 305 305 305 306 307 308 309 309 308 308 310 311 311 313 314 316 317 319 321 322 324
301 301 300 300 300 299 299 299 300 300 300 300 300 300 300 300 301 302 302 302 303 303 303 304 304 305 306 306 307 308 309 310 308 308 310 313 315 318
299 299 299 299 299 298 298 298 298 298 298 298 298 297 297 297 298 298 298 299 299 300 300 301 302 304 305 306 306 306 306 307 308 308 310 311 312 314

GFSNE_850_thetae_105.txt.gz
Theta_e
349 345 341 348 345 346 346 346 346 345 344 350 347 348 350 350 348 348 349 347 342 345 344 337 337 341 333 329 329 333 338 339 342 345 346 347 347 351
347 349 349 348 350 347 346 345 345 345 345 344 344 345 348 348 347 348 350 347 346 346 343 341 331 330 330 331 331 330 328 327 329 340 343 346 345 349
350 351 349 350 350 348 349 347 345 344 345 346 347 344 345 351 348 351 349 348 346 345 346 341 337 335 332 330 329 329 327 327 329 332 340 344 343 345
351 351 351 348 353 351 350 348 346 344 346 346 347 350 346 350 349 348 348 348 346 349 342 343 343 341 344 344 338 333 333 332 330 333 334 343 339 340
349 351 351 351 351 351 351 349 349 351 350 350 347 346 347 348 349 347 349 350 346 344 343 345 345 346 346 347 348 347 340 336 333 332 332 342 342 339
351 351 350 351 352 353 352 352 350 350 348 349 347 347 346 350 351 347 346 345 347 347 346 347 346 348 346 347 349 350 349 343 337 333 330 339 343 342
351 351 349 350 350 348 345 350 349 350 350 350 348 347 347 352 348 347 347 346 348 347 348 348 347 348 347 347 348 351 350 346 343 336 333 337 341 342
351 352 349 350 349 345 340 341 342 341 343 351 350 348 346 349 351 352 353 352 352 352 354 352 350 349 348 349 349 350 348 347 345 339 340 339 338 339
351 350 349 350 347 347 344 343 345 346 347 346 347 349 350 350 348 349 351 351 352 353 352 351 352 353 352 349 349 349 350 351 349 348 347 347 343 341
346 345 344 344 343 343 343 348 348 348 350 350 350 349 347 347 346 346 346 348 351 353 354 352 354 353 354 355 353 351 352 351 352 352 351 351 349 348
344 344 344 343 342 341 339 339 340 342 340 339 341 341 340 340 340 340 346 348 348 350 352 351 352 352 353 353 353 353 350 351 351 351 353 354 354 352
341 341 341 339 337 335 334 333 332 328 325 329 337 340 340 342 343 342 346 345 345 347 349 348 346 347 349 351 352 351 352 352 352 352 352 350 353 355
335 332 335 333 331 328 325 323 320 318 323 331 333 338 339 339 338 338 339 339 340 341 344 344 346 344 346 347 349 349 351 352 352 352 351 352 352 354
332 330 329 327 324 319 317 316 313 315 326 326 326 330 333 331 330 327 337 337 330 330 338 341 345 345 341 344 346 347 347 348 348 350 350 352 351 353
327 324 323 319 317 318 317 314 322 324 324 325 328 327 323 325 326 327 325 324 325 325 328 330 330 328 335 337 339 339 340 342 345 348 349 349 349 349
318 315 313 311 313 314 319 320 320 316 317 316 316 317 317 318 319 320 320 320 320 322 323 323 324 326 326 324 325 326 331 334 335 338 344 345 342 344
308 309 306 307 308 310 312 309 309 309 308 308 309 312 313 315 317 316 316 316 318 318 317 316 317 315 314 316 318 323 327 331 335 334 333 335 332 324
309 312 310 308 310 307 306 304 306 304 303 303 303 305 308 311 311 312 313 315 315 316 315 315 313 312 312 312 318 322 322 323 324 325 321 315 313 320
310 310 310 310 309 310 309 309 308 308 305 307 308 308 308 307 307 308 307 309 310 310 310 310 311 313 313 314 311 310 308 308 308 307 313 320 324 326
308 308 308 308 308 308 307 307 307 306 306 306 306 306 306 306 306 307 307 307 306 306 306 307 307 309 308 308 307 308 311 312 313 314 314 315 315 314
307 306 306 306 306 305 305 305 305 304 304 304 304 304 304 303 304 304 303 303 303 304 305 305 305 304 304 305 307 308 309 309 309 309 309 309 309 309
306 305 305 305 304 303 303 303 303 303 302 302 302 301 300 300 300 300 301 301 301 302 302 302 302 303 303 304 304 304 304 305 305 307 308 307 307 308
304 304 304 303 303 302 301 301 301 301 301 300 299 298 297 298 297 298 298 298 299 299 299 300 300 300 301 302 301 302 302 303 305 306 306 306 307 307

GFSNE_850_thetae_108.txt.gz
Theta_e
344 340 339 340 348 350 347 345 346 347 346 347 349 349 346 344 343 342 338 337 346 347 345 344 339 330 328 328 328 330 330 330 331 331 338 342 346 346
346 349 349 345 344 351 348 349 345 344 346 346 348 346 343 345 349 344 343 347 348 346 348 341 343 341 338 337 334 331 329 331 332 333 334 338 344 345
343 348 349 344 338 343 343 345 345 346 345 348 341 342 343 347 349 346 347 347 348 347 344 342 344 344 346 346 347 347 336 337 333 334 334 335 343 341
348 348 347 350 349 350 347 352 349 350 351 348 350 346 345 348 349 349 348 348 344 346 343 346 345 346 347 346 347 348 347 348 342 334 331 333 342 342
349 349 351 352 349 348 347 346 344 348 350 348 347 347 347 350 349 349 345 347 349 346 348 347 347 348 346 347 347 348 350 349 345 340 331 331 338 342
350 348 348 348 349 348 349 348 349 350 344 349 349 350 349 351 346 351 346 347 347 344 347 351 348 345 348 346 349 348 349 348 345 342 335 332 337 340
347 351 350 349 349 348 348 346 342 340 346 348 343 345 346 346 345 344 343 345 342 344 348 348 349 353 353 352 349 349 349 349 347 346 342 337 337 337
343 349 349 348 348 344 341 338 341 342 344 344 344 348 349 347 347 347 345 347 347 345 350 348 351 352 354 353 349 351 351 350 350 350 351 349 347 347
348 346 346 348 350 346 343 343 345 348 348 348 348 348 349 350 347 345 345 344 348 349 351 352 352 354 354 354 352 352 351 352 351 350 350 352 353 353
346 348 346 343 344 344 344 344 345 345 346 345 346 344 341 341 340 340 344 348 347 348 348 349 348 349 349 349 352 351 351 350 351 351 351 350 350 352
344 343 343 343 343 343 341 339 338 338 336 334 335 339 340 342 342 341 344 346 346 341 347 346 343 342 344 347 350 351 350 351 352 352 352 353 352 351
341 341 342 341 339 337 335 332 327 325 323 332 334 337 341 339 337 340 341 341 341 336 336 338 339 344 343 342 338 342 347 348 348 349 351 352 352 352
339 336 335 332 329 329 327 324 320 316 320 327 328 331 336 336 331 329 332 335 335 330 328 335 335 334 334 335 332 338 341 341 340 342 343 344 348 350
335 333 331 328 325 322 319 316 313 315 322 325 326 329 330 330 324 326 327 325 325 325 328 328 328 331 329 331 330 321 318 321 333 340 339 341 340 341
329 327 326 323 318 315 315 315 317 319 320 322 325 325 321 321 320 323 321 317 317 322 323 323 323 323 323 322 321 314 316 325 333 333 338 338 344 343
322 318 316 313 311 312 315 316 316 316 311 311 312 313 313 315 316 316 314 311 313 313 316 317 317 313 309 308 311 318 322 324 327 329 333 335 336 334
311 310 310 308 310 313 314 313 307 305 305 304 305 305 306 307 308 308 310 311 313 313 312 311 308 306 309 310 311 315 316 318 317 315 313 311 310 310
307 314 312 311 311 308 307 308 307 305 305 306 306 306 306 306 306 307 307 307 306 306 305 305 306 305 306 307 311 310 306 306 306 308 309 313 310 311
312 312 312 311 311 311 310 310 309 307 305 307 307 306 305 305 305 305 305 305 304 303 303 305 305 306 305 305 304 304 305 307 310 310 309 308 308 307
311 311 310 310 309 309 308 307 307 306 305 305 305 304 304 303 302 302 302 302 302 302 302 302 303 303 302 303 303 303 305 305 304 304 305 304 304 304
308 308 308 307 307 306 304 304 305 303 303 303 303 302 301 300 300 300 300 300 300 300 300 301 300 300 300 300 301 301 302 301 301 301 301 304 304 304
308 307 306 306 305 304 303 302 303 303 302 302 300 299 299 299 298 298 298 298 298 298 298 299 298 298 298 298 300 300 299 299 301 301 301 302 303 304
306 306 305 305 304 303 301 301 301 301 301 299 298 298 298 298 297 297 297 297 298 298 297 297 297 298 298 298 298 298 298 298 299 300 302 302 301 302

GFSNE_850_thetae_111.txt.gz
Theta_e
345 337 340 341 340 350 349 347 346 346 347 346 345 345 344 347 343 347 345 348 347 346 342 343 344 345 345 346 347 340 337 337 336 334 334 336 343 343
343 346 344 343 342 339 348 347 346 345 344 346 344 346 348 346 347 348 348 347 347 348 343 344 344 346 346 346 347 342 347 344 339 334 334 333 341 341
343 345 346 347 342 346 340 339 343 345 344 344 346 346 344 346 347 348 349 348 349 346 348 348 345 347 347 346 347 347 349 348 345 341 334 332 339 342
347 347 344 342 347 348 345 348 349 347 348 346 342 346 349 348 349 348 348 348 349 347 345 347 350 349 348 346 347 347 348 348 347 344 337 331 336 342
349 349 346 348 347 343 345 343 346 342 344 346 343 349 349 349 346 343 345 346 346 344 340 344 348 349 346 348 348 348 349 349 345 344 337 332 334 339
347 348 348 347 346 347 348 346 343 340 339 345 344 344 345 346 345 341 338 339 339 342 342 344 346 348 353 351 349 350 350 351 349 348 347 344 342 339
347 346 350 349 351 349 348 348 346 339 340 341 341 341 341 343 345 346 345 343 342 346 347 350 349 351 353 352 352 350 351 351 351 351 351 351 351 349
346 345 348 349 347 345 343 342 342 342 343 344 345 345 346 347 346 344 342 343 345 347 346 348 350 351 352 352 351 350 351 351 350 351 352 352 353 353
342 343 341 343 347 346 346 343 342 345 346 346 344 344 340 340 340 340 342 346 347 348 347 346 347 346 343 347 350 350 350 349 349 352 351 349 350 351
343 342 341 342 344 343 344 342 342 342 342 341 336 338 340 340 340 340 342 345 346 342 339 343 344 339 341 347 348 347 350 349 350 350 351 351 351 349
342 343 343 343 343 342 342 340 338 337 333 331 337 339 339 340 342 342 342 341 341 339 332 326 335 333 340 343 337 335 345 345 344 346 346 346 345 349
341 342 342 342 341 338 336 334 329 326 323 333 333 340 340 337 336 333 335 333 335 330 330 327 334 331 327 331 319 316 322 330 334 341 347 349 346 343
340 338 336 334 333 330 331 330 327 320 319 327 328 335 335 333 329 328 327 325 324 325 327 327 327 326 325 322 314 314 311 313 319 332 338 336 341 341
338 336 332 330 326 324 325 321 317 315 314 318 324 327 328 327 326 324 324 324 322 324 324 323 323 322 321 319 311 308 308 317 327 330 329 331 336 338
334 331 328 326 325 321 318 315 314 315 317 318 320 324 325 323 318 320 321 316 317 321 321 321 320 318 313 308 309 311 311 311 315 320 314 316 318 319
327 324 321 316 313 312 312 314 315 315 311 311 310 312 311 311 310 310 308 307 308 309 311 310 308 305 305 306 308 310 312 311 309 306 306 306 307 307
316 313 311 310 309 312 314 315 313 306 305 304 304 304 304 304 305 305 305 305 306 305 305 304 304 304 305 305 305 307 305 304 305 305 306 306 306 306
308 309 311 309 309 308 307 306 306 305 304 305 305 305 305 304 304 304 304 304 303 302 302 302 303 303 303 303 302 303 302 302 302 302 302 303 304 304
312 312 312 311 311 310 310 309 307 306 305 305 304 304 304 303 303 302 302 302 301 301 301 301 301 301 301 300 300 300 300 301 301 300 300 300 301 303
312 312 311 311 310 310 309 308 307 305 304 303 303 303 302 301 301 300 300 300 300 300 299 299 299 299 298 298 298 299 299 299 299 299 300 300 301 302
310 310 309 309 308 307 306 305 304 303 302 302 302 301 300 300 300 300 299 299 299 299 299 299 298 298 298 299 300 300 300 300 299 299 300 300 301 301
308 308 308 307 307 306 304 304 303 302 301 301 300 299 299 299 299 299 299 299 299 298 298 298 299 299 299 298 298 298 299 299 300 301 299 298 298 298
307 307 307 306 304 303 302 301 302 301 300 299 298 298 298 298 298 298 299 299 299 299 299 299 299 298 298 298 298 298 298 298 298 298 299 299 299 298

GFSNE_850_thetae_114.txt.gz
Theta_e
344 341 343 344 344 346 348 343 347 344 345 346 346 344 347 346 346 347 348 349 349 348 348 345 343 345 345 346 346 345 346 344 334 334 335 335 341 342
342 340 344 343 345 341 345 343 346 344 341 343 347 347 348 346 347 347 349 348 349 347 347 346 345 345 346 349 348 347 348 348 346 338 333 333 341 339
341 341 345 346 346 341 341 343 344 343 343 341 346 347 348 345 347 348 348 349 347 346 345 347 347 347 347 348 348 348 347 349 347 342 334 331 338 341
346 346 346 342 342 346 347 346 348 346 344 345 344 345 345 347 344 346 347 348 347 346 342 340 345 348 347 348 347 348 348 348 346 340 335 331 335 340
345 347 347 346 345 346 345 345 345 344 343 342 342 344 347 346 344 342 339 337 340 340 343 343 345 347 352 349 349 349 350 348 350 348 343 342 340 339
345 346 347 349 349 345 346 345 345 345 340 338 343 342 340 339 340 342 341 341 341 342 348 349 352 353 352 351 349 350 351 350 350 351 350 351 351 350
345 347 348 347 345 346 346 344 339 337 338 339 341 341 343 345 345 343 342 342 344 345 347 349 349 351 350 351 351 349 350 350 349 351 351 349 350 351
344 343 340 344 345 344 343 341 341 341 340 341 343 344 344 340 340 340 342 343 345 345 345 345 346 343 346 350 350 350 351 349 348 348 349 349 348 350
344 342 342 340 341 345 343 345 345 342 343 343 341 337 338 339 340 340 341 345 344 343 342 337 340 341 347 346 349 349 348 348 348 348 349 351 351 348
344 345 343 341 341 343 343 344 342 343 341 339 334 337 339 340 340 341 341 342 342 340 338 327 327 335 343 342 335 337 343 344 343 346 347 347 346 349
341 342 342 342 343 343 342 341 339 337 333 330 334 337 338 339 340 341 339 337 337 335 332 322 322 322 328 334 322 318 320 330 335 341 348 348 345 344
341 341 342 342 341 340 337 335 331 326 326 331 333 337 338 338 338 336 333 333 326 323 321 324 325 322 320 322 315 311 309 314 326 334 337 338 339 340
340 338 337 336 336 334 332 329 326 323 322 327 331 336 335 333 331 330 328 325 323 322 321 322 322 320 318 313 309 307 308 310 312 320 328 327 326 330
339 336 333 332 330 328 326 322 318 316 316 317 321 326 327 326 323 322 321 321 321 320 319 320 319 316 312 307 307 307 308 309 309 310 309 307 307 307
335 333 332 329 326 324 321 317 315 314 316 316 317 319 322 322 320 317 318 316 314 315 315 314 310 306 305 305 306 306 306 306 307 306 306 305 306 306
329 328 325 321 317 314 313 312 313 314 314 312 313 313 314 312 311 308 307 307 308 308 306 305 304 304 304 303 304 304 303 303 304 304 304 304 305 304
320 317 314 312 310 311 313 314 314 312 307 306 306 305 305 305 305 305 305 304 304 303 303 303 303 302 302 302 302 302 302 302 302 303 303 303 303 303
310 309 310 310 309 308 307 307 307 305 304 305 305 305 304 304 304 303 302 302 302 302 302 302 302 302 302 301 301 300 301 301 301 301 302 302 303 303
307 310 311 311 310 309 308 308 308 306 305 305 305 304 303 302 302 301 301 301 301 300 300 301 301 301 301 301 301 300 300 301 301 302 301 302 302 303
311 312 311 311 310 310 309 309 308 306 305 304 303 302 301 300 300 300 300 300 300 300 300 300 300 300 300 300 300 300 299 300 300 300 300 301 300 301
311 311 311 310 310 309 309 308 306 304 303 302 301 300 299 299 299 299 299 299 299 299 299 299 299 299 299 299 300 300 300 299 299 299 299 299 299 300
309 309 309 308 307 307 306 304 303 302 302 301 300 299 299 298 298 298 299 299 299 299 299 299 299 299 299 299 299 299 299 299 299 299 300 299 298 298
308 308 308 307 307 306 304 302 302 301 300 299 298 298 298 298 298 298 299 299 299 299 299 299 299 298 298 299 299 299 299 300 300 300 300 300 300 299

GFSNE_850_thetae_117.txt.gz
Theta_e
342 340 340 342 342 341 347 343 344 343 343 342 344 344 343 345 345 345 347 347 348 347 346 345 344 345 346 347 347 346 347 348 346 336 335 334 339 341
347 345 344 345 344 341 340 344 342 342 343 343 343 345 346 345 346 344 348 349 347 346 344 345 344 347 346 345 345 348 347 348 347 343 337 334 338 339
344 343 344 347 346 344 343 344 345 345 345 343 344 344 346 345 345 345 349 348 348 347 345 345 342 347 347 346 344 346 347 345 344 338 334 332 336 341
345 343 342 342 341 343 346 346 346 347 346 343 345 342 345 344 346 345 344 342 342 338 337 341 341 344 344 348 347 348 348 347 345 340 336 334 335 339
344 344 346 347 346 345 344 344 344 344 343 342 341 343 344 343 343 342 337 341 341 342 346 348 351 347 347 349 349 349 348 349 349 349 349 347 345 342
345 344 346 346 346 347 344 347 344 344 343 339 336 338 340 339 339 340 342 341 344 346 348 347 347 350 349 346 348 350 349 347 350 350 348 348 350 350
345 343 345 344 345 344 345 346 345 338 338 339 340 341 342 342 341 340 340 342 345 345 345 344 344 346 348 347 348 347 347 349 349 347 346 347 348 348
343 343 344 346 341 342 342 342 341 341 341 342 342 343 342 338 339 340 341 343 343 342 341 340 345 346 347 347 347 347 348 348 348 347 345 346 347 348
342 342 342 341 340 340 343 342 343 343 341 341 342 340 336 337 339 340 341 341 342 342 340 332 341 344 337 333 336 341 344 344 343 347 347 347 347 349
340 344 344 343 342 340 341 342 342 341 341 340 339 336 335 337 339 340 341 340 339 338 335 330 325 335 337 325 322 319 321 334 338 346 344 343 345 343
339 339 339 339 341 341 342 342 341 341 339 337 333 332 334 337 338 340 339 335 331 330 326 319 322 325 337 332 314 310 313 323 330 334 338 340 340 339
335 336 336 340 341 341 340 339 338 335 331 329 332 333 334 336 338 336 334 332 328 322 320 320 319 318 321 325 311 307 309 311 316 323 327 327 329 331
335 337 339 338 337 333 330 328 323 325 328 332 333 334 333 332 332 331 329 326 321 320 318 318 319 316 312 308 307 307 307 307 308 308 307 307 306 306
337 334 330 331 331 328 324 322 321 320 323 325 327 327 327 326 325 324 323 320 316 315 314 314 312 308 306 305 306 305 305 305 305 304 305 305 305 305
337 332 331 334 331 328 328 327 322 318 318 318 318 318 319 320 320 319 318 315 313 311 309 307 305 304 304 304 304 304 303 304 303 304 304 304 304 304
332 331 329 325 322 319 316 314 314 315 314 314 313 314 315 315 314 312 311 309 308 307 304 303 303 302 302 303 302 302 302 303 303 303 303 303 303 303
323 322 322 319 315 312 312 313 313 313 312 309 308 308 307 306 305 305 305 304 304 303 302 302 302 302 302 302 301 302 302 302 302 302 303 303 303 303
313 311 311 311 310 309 309 308 308 307 306 305 305 305 305 304 304 303 302 301 301 301 301 302 301 301 301 301 300 301 301 301 301 301 301 302 302 301
309 308 309 310 310 309 309 308 308 307 306 306 305 304 303 302 301 301 300 300 300 300 300 300 301 301 301 300 300 300 300 301 300 300 300 300 300 300
305 309 311 311 311 310 310 309 308 307 306 304 303 302 301 300 300 300 300 300 300 300 300 300 300 300 300 300 300 299 299 299 299 299 300 300 299 300
306 311 312 311 310 309 309 308 307 306 304 303 302 300 299 299 299 299 299 299 299 299 299 299 299 299 299 299 299 300 299 300 300 300 299 300 300 300
310 311 311 310 309 307 307 306 305 304 303 302 300 299 298 298 298 298 298 299 299 299 299 299 298 298 299 299 299 299 300 300 300 299 299 299 299 299
309 309 308 308 307 307 306 304 303 302 301 300 299 297 297 297 297 298 298 298 298 298 299 298 298 298 298 299 299 299 299 299 299 299 299 299 300 299

GFSNE_850_thetae_120.txt.gz
Theta_e
342 341 341 342 342 342 342 345 344 342 342 341 342 342 344 345 346 343 343 347 342 343 344 345 344 345 346 345 344 344 348 346 346 344 337 334 336 339
344 343 343 343 344 343 340 340 342 342 343 343 344 344 346 346 346 347 349 349 348 347 346 344 342 342 344 345 342 343 346 346 345 340 337 333 335 339
345 341 343 343 346 346 344 343 344 344 345 344 345 344 343 343 345 345 344 343 342 341 341 338 338 339 339 341 344 346 347 346 346 340 333 331 334 339
345 345 343 343 343 344 346 346 346 346 346 346 344 343 341 341 343 344 342 339 341 342 340 342 344 344 344 346 347 347 347 347 347 343 338 334 335 338
342 344 344 347 348 347 347 346 346 345 343 342 341 340 341 342 340 339 342 343 345 347 347 347 348 349 348 348 346 346 347 348 346 348 347 346 345 343
342 344 345 345 345 347 346 344 347 346 346 344 341 338 339 339 339 341 341 345 346 346 345 345 345 346 348 348 347 347 347 346 346 347 347 346 346 347
341 343 344 344 344 344 344 343 345 344 338 339 339 340 340 341 340 339 341 343 343 342 341 343 344 345 346 346 345 345 346 347 347 347 346 345 346 345
341 342 343 342 345 345 341 342 341 341 341 342 341 342 341 338 337 339 340 341 342 339 337 339 339 339 336 338 338 343 344 344 344 346 346 346 346 346
341 341 343 342 342 340 339 341 342 341 342 342 341 341 339 336 338 339 340 340 339 339 333 331 337 337 329 326 321 323 333 340 342 343 344 344 342 343
342 342 341 342 341 340 341 339 340 341 340 340 340 338 335 335 338 339 340 339 336 335 330 327 329 332 325 318 313 316 323 330 332 336 338 338 336 336
340 339 339 340 341 341 340 341 341 341 340 339 336 333 332 334 336 337 339 335 331 330 325 323 322 330 329 327 312 309 312 320 326 328 327 330 333 333
336 337 337 336 333 338 340 341 341 340 337 334 331 331 331 332 335 336 335 333 328 324 320 319 320 318 327 327 316 308 308 309 309 308 310 312 311 309
338 336 334 333 334 338 335 334 332 328 327 329 331 332 332 332 332 331 329 326 324 318 317 316 315 314 311 311 308 307 305 305 305 304 305 305 305 305
336 337 336 335 331 328 326 324 321 324 328 328 329 328 327 326 324 323 322 321 320 314 311 310 309 306 305 305 306 304 303 303 303 304 304 304 304 304
337 334 330 329 331 332 327 320 320 320 321 321 319 319 319 318 318 318 319 318 313 310 308 306 304 304 303 303 303 303 302 303 303 303 303 303 304 304
335 332 330 329 326 322 319 318 318 317 317 318 316 315 315 316 315 315 313 311 308 306 304 303 302 302 302 302 302 302 302 302 302 302 302 302 302 303
327 328 327 324 320 317 315 313 313 313 313 313 311 310 310 309 308 307 306 305 304 303 301 301 301 301 301 301 301 301 301 301 301 302 302 301 301 301
314 314 316 315 314 312 311 310 309 309 308 306 305 305 305 305 304 303 303 302 301 301 301 301 301 301 301 301 300 301 301 301 300 301 301 301 300 300
310 308 308 310 310 310 309 308 308 307 306 306 305 305 304 303 302 301 301 300 300 300 300 300 300 300 300 300 300 300 300 300 300 300 300 300 300 300
305 305 307 310 311 310 310 309 308 308 307 306 304 303 302 301 300 299 299 299 299 299 300 300 300 300 300 299 299 299 299 300 300 300 300 300 300 300
304 305 310 310 311 310 308 307 307 306 305 304 303 301 300 299 299 299 299 299 299 299 299 299 299 299 299 299 299 299 299 300 300 299 299 299 299 299
305 306 311 311 310 308 307 306 306 305 304 303 301 300 299 298 298 298 298 298 299 299 299 299 299 298 298 299 299 299 299 299 299 299 299 299 299 300
309 311 311 310 308 307 306 306 304 303 303 302 300 298 298 298 298 298 298 298 298 298 298 298 298 298 298 299 299 299 299 299 299 299 299 299 299 299

GFSNE_850_thetae_123.txt.gz
Theta_e
341 342 341 341 341 341 341 342 346 345 344 345 347 342 344 346 346 346 347 346 347 345 346 345 343 341 343 345 345 344 347 347 344 341 338 334 335 338
341 342 342 343 343 343 343 341 341 343 342 346 349 344 346 348 345 345 344 344 344 344 343 341 338 338 339 338 339 345 346 347 345 343 335 332 333 337
342 344 340 343 344 345 345 343 343 343 347 348 344 345 343 343 344 344 343 343 340 339 340 340 342 343 342 343 346 345 347 345 346 343 337 331 332 337
343 344 344 344 341 342 342 342 343 343 347 349 346 343 342 342 343 342 342 345 342 343 345 346 346 347 346 347 347 347 347 347 346 346 345 341 334 335
344 343 344 344 343 347 344 345 345 344 344 341 346 341 338 341 341 341 343 345 345 345 345 345 345 346 348 348 346 346 347 347 346 347 347 346 345 345
343 343 342 343 345 343 344 344 344 344 345 345 346 344 340 341 342 344 345 345 343 343 343 343 343 344 345 347 347 346 347 346 346 347 347 346 346 345
343 342 343 344 344 344 344 343 343 342 344 338 347 348 347 343 342 340 346 343 342 340 340 340 339 340 342 342 342 343 344 343 343 345 346 345 345 345
344 344 340 343 344 344 346 343 342 341 340 340 341 340 342 340 337 339 345 346 341 338 338 336 336 337 337 337 331 331 335 337 339 342 343 344 345 345
344 343 342 342 343 343 342 341 341 341 340 340 340 340 341 337 336 339 340 341 339 337 337 332 331 333 328 326 323 324 326 331 335 336 338 339 340 340
342 343 343 342 343 343 341 341 341 340 342 342 340 340 338 333 337 339 339 340 338 336 331 332 326 327 324 321 313 313 318 325 327 332 335 334 334 334
341 341 341 342 342 342 341 341 341 341 342 341 340 337 333 334 336 338 339 341 339 331 328 326 325 325 325 325 320 309 310 313 317 320 321 321 323 323
337 338 339 339 337 335 335 337 340 341 340 338 334 332 332 332 334 336 335 332 332 327 324 321 321 325 325 325 326 313 307 307 307 306 306 305 305 305
337 338 338 337 336 334 334 335 338 337 332 330 331 332 331 331 331 331 330 328 325 322 320 318 319 317 319 320 316 309 305 304 304 304 304 304 304 304
337 335 335 334 335 333 333 331 327 327 324 328 329 328 328 326 325 322 321 320 320 318 315 312 312 310 314 315 314 306 303 303 303 303 303 303 304 304
337 337 336 333 331 328 328 326 322 322 325 324 322 321 320 319 318 316 316 317 317 314 310 307 306 304 304 307 305 302 302 302 303 302 303 303 303 303
332 326 323 322 327 329 326 324 326 325 325 323 322 318 316 315 315 315 315 314 311 307 305 303 302 302 302 302 302 302 302 302 302 302 302 302 302 301
328 325 325 325 323 320 318 316 315 314 314 314 314 313 312 311 311 309 307 306 305 304 302 301 301 301 301 301 301 301 301 301 301 301 301 303 301 301
317 314 316 316 316 314 313 311 311 310 310 309 308 307 306 306 305 305 304 302 301 301 301 301 301 301 300 301 300 300 300 300 300 300 300 303 304 303
321 315 309 309 310 310 310 309 308 308 307 306 306 305 305 304 303 302 301 301 300 300 300 300 300 302 304 305 300 300 300 300 300 302 300 300 302 303
306 305 306 308 309 310 310 309 308 308 307 307 305 304 303 302 301 300 300 299 299 299 299 299 300 300 303 304 303 300 300 300 300 302 303 301 301 300
304 304 306 307 310 310 310 308 307 306 305 304 304 303 301 300 299 299 299 299 299 299 299 299 299 299 299 299 301 302 301 299 299 299 299 302 303 303
304 307 310 312 311 310 308 307 307 305 304 304 303 302 301 299 298 298 298 299 299 299 300 299 299 298 299 301 302 300 301 301 300 299 299 299 300 302
307 308 310 311 310 309 308 307 306 305 304 303 302 301 299 298 298 297 298 298 298 298 298 300 299 298 298 298 299 300 299 300 301 302 302 301 299 299

GFSNE_850_thetae_126.txt.gz
Theta_e
350 350 347 347 348 346 347 346 345 341 342 348 344 349 349 350 347 354 348 346 345 346 346 344 339 337 338 340 342 343 344 348 346 345 339 336 335 337
349 349 349 346 348 348 347 347 347 345 342 345 345 348 350 350 348 351 349 343 344 340 339 339 341 342 341 340 346 345 346 347 345 345 337 334 334 336
351 350 351 351 347 346 347 346 346 346 344 343 347 348 347 348 346 347 352 347 340 340 341 342 344 345 343 345 347 347 347 346 346 345 343 337 333 335
351 351 351 349 350 350 347 347 347 349 347 349 349 348 348 350 348 345 350 348 343 343 344 345 345 347 347 345 346 345 346 347 347 346 347 346 343 337
351 351 351 351 350 347 349 350 349 350 350 350 349 350 348 347 348 348 348 346 344 343 344 344 343 344 346 347 347 346 346 346 347 345 346 347 346 346
350 350 350 350 350 343 345 346 347 349 346 350 348 347 347 349 348 349 347 347 344 339 340 341 341 342 342 343 344 345 345 345 345 346 346 347 346 346
351 348 348 348 344 344 344 344 348 345 348 348 346 346 347 348 347 348 347 347 345 343 337 332 333 337 338 338 338 338 338 338 339 342 345 346 345 345
350 350 349 345 341 344 345 345 344 342 343 348 346 346 349 349 346 346 348 347 343 343 336 331 332 333 333 334 334 333 330 331 331 331 339 340 342 343
346 347 348 350 343 343 343 343 343 342 342 341 344 349 348 348 344 340 347 346 346 343 338 333 326 324 327 326 323 321 320 322 327 332 335 335 335 336
344 343 346 347 343 343 343 344 342 340 340 342 343 343 343 342 335 343 343 342 340 337 336 338 330 321 322 323 320 315 313 314 319 324 327 330 330 331
341 342 342 345 342 342 344 343 343 342 341 341 342 341 339 334 333 341 341 340 340 337 331 333 330 324 322 317 324 322 312 309 310 310 312 314 314 313
337 338 340 341 341 341 339 339 339 340 341 341 340 337 334 333 335 337 339 337 336 335 328 326 327 327 325 322 318 319 315 306 306 305 305 304 304 307
339 338 338 337 338 336 336 335 334 335 337 335 332 331 332 332 332 333 333 333 330 328 325 321 324 323 325 325 318 314 309 306 307 304 303 304 304 303
339 338 337 336 335 334 334 334 332 331 326 327 329 330 329 329 327 325 323 321 319 320 319 317 322 319 319 319 319 313 311 304 303 304 305 304 303 303
337 337 336 334 336 335 333 326 324 323 325 325 325 325 323 321 320 318 316 315 316 316 316 312 311 310 314 316 316 311 309 310 304 303 303 303 303 305
335 336 335 331 326 325 326 328 327 324 323 323 323 323 320 317 315 314 314 314 312 311 308 306 304 304 309 309 310 309 307 310 307 303 303 306 307 306
329 327 326 325 325 324 322 318 316 317 318 317 317 316 314 314 313 311 312 312 312 311 309 305 302 302 303 305 308 308 308 308 307 305 306 308 307 307
323 321 318 317 316 315 314 313 312 314 314 313 313 312 312 311 310 309 308 308 308 307 307 306 305 305 304 302 301 307 306 307 307 306 306 307 308 308
323 319 317 312 311 310 310 310 309 308 308 307 307 306 307 305 305 307 307 307 306 306 306 306 306 307 308 308 308 303 305 307 306 307 307 307 306 307
308 307 308 307 311 313 312 310 309 307 306 306 305 305 305 304 303 303 305 305 306 306 306 305 305 305 307 308 308 307 300 300 305 306 306 305 305 304
309 309 307 308 310 310 310 309 309 308 306 305 306 305 304 305 304 304 304 300 300 302 305 305 301 300 299 299 304 306 306 302 299 299 303 304 305 305
312 311 312 314 313 313 312 308 309 308 308 308 306 306 304 302 303 304 302 303 303 304 304 303 301 301 303 304 305 305 305 305 303 303 301 301 301 302
311 312 313 314 314 312 311 311 310 309 307 307 306 305 303 302 302 301 301 302 302 302 302 303 302 300 301 302 300 301 302 303 303 304 304 304 303 301

GFSNE_850_thetae_129.txt.gz
Theta_e
351 351 350 347 345 346 345 345 344 342 342 348 344 350 347 346 348 353 349 344 343 343 339 340 339 341 341 341 341 340 343 348 345 345 338 336 335 337
349 349 350 346 347 347 346 345 347 344 342 341 342 349 349 351 349 351 349 344 345 338 339 342 344 345 343 346 347 346 347 347 346 344 339 334 334 336
352 350 351 351 349 345 350 346 345 345 347 342 347 350 347 346 352 351 349 348 347 341 341 343 345 347 346 346 346 347 347 346 347 344 344 341 334 335
351 350 351 350 351 351 348 345 345 348 349 349 348 349 350 352 351 347 350 346 345 341 343 343 343 345 347 347 346 345 346 347 347 346 347 346 346 340
350 349 349 351 350 349 350 352 351 351 352 349 349 350 349 349 352 350 349 348 343 341 340 342 341 341 342 344 346 346 346 346 346 346 346 346 346 346
351 351 351 352 351 347 345 344 344 347 348 344 345 349 350 347 348 348 350 348 342 338 339 336 337 338 339 339 340 343 343 342 340 342 346 346 346 345
352 352 351 351 349 349 347 348 348 348 348 349 350 347 348 348 348 348 346 347 346 344 341 334 331 332 334 334 335 335 334 333 332 333 342 345 345 344
349 349 350 349 347 343 342 344 344 343 344 343 345 348 347 346 345 348 348 347 346 346 342 334 329 329 330 329 330 331 328 326 328 332 334 338 339 339
349 348 348 351 349 349 342 342 344 344 343 342 341 347 346 345 347 348 347 347 347 346 341 336 330 326 324 325 324 323 319 317 319 325 331 332 333 333
344 346 348 348 350 349 346 348 349 346 341 341 345 346 342 341 342 344 343 345 343 343 342 339 334 324 326 321 322 323 320 313 311 316 319 320 320 318
343 342 342 342 343 343 342 345 345 345 342 342 342 342 342 342 340 337 343 341 342 340 337 338 336 329 325 322 319 320 322 317 308 307 307 307 306 305
342 342 341 341 342 342 342 343 342 343 340 339 341 341 339 337 335 334 336 340 339 338 335 332 331 330 326 325 324 323 316 312 305 305 304 304 304 307
342 338 338 339 337 337 337 336 336 338 335 336 337 335 332 333 333 334 337 337 334 329 330 328 326 325 328 328 324 319 315 312 307 305 304 304 303 306
339 338 338 338 337 336 335 335 335 334 332 329 329 329 329 330 330 330 328 327 325 325 325 323 318 325 324 322 324 319 315 312 311 312 312 306 304 303
337 337 337 337 337 335 335 335 334 333 328 326 327 326 327 325 321 321 320 318 315 313 313 315 316 316 316 318 319 317 315 313 310 311 311 311 311 310
335 335 335 333 331 329 328 328 328 323 324 324 324 323 322 320 316 315 313 313 313 314 313 310 308 307 313 314 315 314 311 312 312 310 309 310 310 309
333 332 327 323 323 323 320 318 317 319 320 319 319 318 316 316 316 313 314 314 314 315 313 311 305 303 305 310 311 311 311 311 310 310 306 311 310 309
326 327 327 324 322 318 317 317 316 314 315 314 314 313 313 312 313 311 310 310 310 311 310 310 310 310 309 307 303 310 309 309 310 309 308 310 310 311
320 321 321 320 319 316 312 311 312 313 312 311 309 308 310 312 308 308 308 307 308 308 308 308 308 309 310 311 311 309 306 309 309 309 310 309 309 308
310 309 309 310 309 313 311 311 311 309 307 306 306 306 305 305 305 305 305 306 307 308 307 308 307 307 308 310 310 309 305 300 304 306 307 306 306 306
314 313 313 313 314 313 312 310 309 310 310 309 310 310 308 308 309 307 307 306 303 306 307 307 306 302 300 300 302 306 307 307 303 301 300 299 301 305
313 314 314 315 315 315 315 314 312 311 311 311 310 309 308 306 305 306 306 305 304 305 306 306 304 302 300 304 305 307 307 306 305 303 303 303 303 303
313 314 315 315 316 316 315 314 313 312 311 310 310 309 307 306 305 305 305 304 305 305 305 305 305 303 303 304 303 303 303 304 305 305 304 304 304 303

GFSNE_850_thetae_132.txt.gz
Theta_e
349 349 351 348 349 348 347 345 346 346 345 346 345 346 347 345 341 347 346 348 344 341 338 339 341 343 342 343 343 341 344 347 345 345 339 338 337 337
347 352 351 349 346 347 349 348 347 343 347 343 349 350 350 346 346 348 348 346 348 341 341 342 343 345 345 346 346 346 346 346 346 343 341 335 334 335
345 347 346 348 346 343 348 348 350 348 346 345 348 350 348 343 351 349 345 347 346 343 342 343 344 346 346 345 345 346 346 346 347 345 346 342 335 333
348 349 349 348 349 349 348 345 349 348 343 345 345 348 349 349 351 343 350 348 347 342 341 342 341 342 344 346 346 346 346 346 347 346 346 346 345 340
346 349 347 348 349 348 345 347 350 349 345 348 346 344 350 350 350 347 347 347 346 341 340 339 338 338 339 340 341 344 345 344 345 346 345 345 346 346
351 348 348 348 345 347 349 344 342 344 343 345 343 343 345 348 350 348 346 346 346 343 341 340 335 334 334 334 336 338 339 338 336 340 344 345 345 345
345 347 348 348 348 348 348 347 345 344 345 345 344 345 349 347 346 345 347 344 346 343 342 337 335 335 330 329 330 332 333 332 331 334 339 342 342 342
341 345 345 345 346 344 346 343 343 343 343 343 343 342 345 346 341 349 348 347 346 344 342 337 338 337 334 324 324 324 323 321 322 330 334 335 336 335
343 346 346 348 350 349 348 346 343 343 344 344 344 343 342 344 344 344 348 347 345 346 345 340 338 337 336 328 321 321 321 319 315 317 323 328 330 330
345 344 344 343 343 342 342 346 345 344 343 344 343 342 341 343 342 342 342 341 341 344 344 340 337 338 335 330 322 318 320 320 312 309 310 313 312 309
344 344 344 343 342 342 340 343 345 347 345 342 342 342 342 342 342 341 339 341 341 340 342 339 339 338 332 329 324 327 324 318 314 306 305 304 304 305
344 343 341 341 341 342 342 342 342 345 343 339 338 339 340 339 337 336 334 335 340 339 339 338 333 335 330 328 327 327 326 317 312 306 304 303 303 310
342 341 341 340 340 338 339 340 340 340 340 337 334 335 335 335 333 331 334 336 334 331 331 331 330 329 329 329 327 326 324 319 313 307 308 307 303 313
338 337 339 338 338 337 337 337 336 335 334 333 333 332 331 329 330 329 329 330 330 330 329 327 323 320 319 319 326 323 320 316 311 311 312 310 308 304
336 337 337 337 336 336 335 335 335 334 330 329 328 328 328 326 324 325 324 325 319 317 317 314 314 315 317 320 318 320 316 314 314 310 311 311 310 308
336 335 334 334 333 333 330 328 329 328 324 324 324 322 319 317 315 313 313 314 314 314 314 313 309 310 312 313 315 316 313 313 312 312 308 311 310 310
331 331 330 329 325 326 324 323 322 324 322 321 318 317 316 316 316 314 311 312 313 313 313 311 310 304 306 312 311 312 312 311 311 310 305 311 311 310
324 324 324 324 324 323 322 321 320 316 317 316 314 315 315 315 314 312 310 309 311 311 311 310 309 309 310 306 307 311 308 310 310 309 309 310 310 311
309 309 311 313 315 315 313 312 311 311 311 310 310 311 310 310 309 309 308 307 309 309 308 309 308 309 309 312 311 306 309 310 309 308 310 310 309 309
313 313 313 313 309 313 312 311 310 310 308 307 306 307 307 306 308 308 308 308 306 308 308 308 307 305 306 310 311 310 309 303 301 301 301 302 303 303
315 315 315 315 315 315 314 312 310 311 311 309 311 311 310 309 308 309 308 307 307 306 307 308 308 307 303 301 301 303 306 308 307 305 303 302 300 300
314 315 315 315 317 316 316 315 314 313 313 312 312 311 310 309 307 306 307 306 306 304 306 306 305 304 301 301 302 303 306 307 306 304 303 304 304 304
312 312 314 316 316 317 316 316 314 313 313 312 311 310 309 308 306 306 305 305 305 306 305 305 305 305 305 303 304 304 303 304 306 306 305 305 305 304

GFSNE_850_thetae_135.txt.gz
Theta_e
347 347 347 346 347 345 349 347 349 346 341 348 346 347 347 345 345 346 345 342 346 344 340 340 343 343 344 346 343 341 345 346 344 345 341 339 337 340
350 346 350 349 350 345 346 349 349 347 348 349 348 349 348 347 349 348 344 341 345 343 339 341 343 345 344 345 345 345 345 347 345 344 341 338 339 339
346 344 346 346 346 347 343 346 346 348 347 348 346 347 347 345 346 349 343 341 344 343 340 341 341 343 345 344 344 346 345 345 346 345 344 342 336 335
346 347 348 349 350 347 344 345 348 347 348 344 342 344 349 350 348 350 345 343 347 345 339 340 338 337 338 342 345 345 345 345 346 346 345 345 344 339
347 346 346 347 348 348 345 343 343 345 348 347 345 341 343 346 349 349 345 346 346 343 342 340 335 335 333 333 335 339 342 343 342 343 345 345 345 345
342 345 346 347 346 346 346 346 347 344 343 344 342 342 344 345 346 347 345 343 345 345 344 342 338 334 331 329 330 333 335 336 335 334 340 343 344 344
347 345 340 345 347 348 347 347 347 346 344 345 344 344 345 345 346 346 341 342 341 344 343 342 340 339 336 329 325 325 328 329 330 332 336 340 342 342
348 344 342 343 345 345 345 346 345 344 343 343 342 343 343 344 346 345 342 343 345 346 345 344 340 339 338 334 324 321 320 320 320 327 333 335 335 335
341 340 340 344 345 344 344 341 344 346 345 342 344 344 343 341 340 341 341 344 344 343 344 344 341 338 337 336 331 320 319 320 317 314 320 326 327 325
343 342 341 343 343 342 342 342 342 342 345 344 344 344 343 342 342 342 340 340 341 340 340 342 340 337 336 336 332 322 325 318 317 311 308 310 310 308
343 343 343 343 343 341 340 342 341 343 343 345 342 341 341 341 341 341 341 341 340 340 341 341 340 337 336 333 328 326 327 322 315 310 305 304 304 308
343 343 342 343 341 340 340 341 342 343 343 341 339 339 338 336 336 336 336 335 335 339 340 338 334 330 328 328 325 326 327 323 317 311 306 303 303 308
341 342 342 341 340 339 338 339 338 337 337 337 337 336 335 334 333 332 332 333 334 332 332 332 330 329 327 327 325 326 325 323 322 315 309 308 305 305
336 337 338 337 335 335 336 336 335 335 335 334 333 331 330 329 329 329 329 330 329 328 330 328 327 328 326 323 322 321 323 320 319 313 311 309 308 304
336 335 335 336 336 336 336 334 334 334 334 333 328 327 327 325 320 318 316 315 314 313 314 314 314 311 312 316 317 319 322 318 314 314 311 311 311 308
334 333 333 333 331 329 328 326 327 328 330 328 328 326 322 319 317 315 316 313 314 315 315 312 311 306 313 314 315 319 318 315 313 312 312 309 311 309
329 329 329 329 328 327 325 324 323 322 322 321 318 318 317 316 315 314 312 308 311 312 314 311 311 309 305 313 313 314 313 312 312 311 310 306 311 310
319 320 322 322 323 322 322 320 317 316 315 313 313 314 314 314 313 312 312 310 310 310 310 310 310 309 310 307 311 311 311 311 311 311 308 308 310 311
314 313 311 309 310 311 311 311 311 310 310 309 309 309 307 307 306 307 306 306 306 307 309 308 308 308 308 309 311 308 310 309 309 309 308 310 309 310
314 314 315 315 315 314 310 310 310 309 308 308 310 310 310 309 309 309 308 308 308 307 308 308 308 308 306 307 311 311 308 307 306 304 303 306 307 307
315 316 315 315 316 316 315 314 311 311 311 311 311 311 310 310 308 308 307 307 307 306 305 307 307 307 307 306 304 301 302 304 306 306 306 305 303 301
313 314 316 316 316 316 316 315 313 313 312 312 312 310 309 309 308 306 306 306 306 305 305 305 305 305 304 301 301 303 304 305 305 305 305 304 304 304
311 311 312 314 315 316 314 314 313 312 312 311 311 310 309 308 307 306 305 305 305 305 305 305 305 305 305 305 305 305 305 305 305 305 305 305 305 305

GFSNE_850_thetae_138.txt.gz
Theta_e
346 347 346 346 346 348 345 348 348 346 344 347 345 347 347 345 346 344 345 343 345 343 338 339 341 343 343 345 342 340 343 344 344 344 343 340 338 340
347 348 347 347 349 349 347 344 347 348 347 348 348 348 347 346 346 343 346 340 344 340 339 340 342 344 343 344 345 343 343 346 344 345 342 340 337 338
345 346 347 343 344 346 347 346 344 345 347 346 347 347 345 346 345 346 347 342 344 344 339 339 338 339 343 344 344 345 346 345 345 345 343 344 341 335
345 346 347 346 348 348 349 348 344 344 345 346 346 345 344 347 348 348 346 345 345 345 339 339 337 336 335 338 342 344 345 345 345 345 345 344 344 341
344 347 346 346 348 345 348 345 344 347 343 345 346 343 346 344 343 347 346 344 340 343 343 342 335 333 331 328 330 333 338 341 341 341 344 344 345 345
345 343 343 345 348 345 344 344 345 345 346 344 344 344 343 344 345 345 345 345 341 341 343 343 341 335 332 330 326 326 327 331 333 333 334 339 343 343
348 347 347 343 339 343 347 345 345 344 344 345 344 343 343 344 344 344 344 343 342 341 340 343 342 338 336 335 326 322 321 321 323 327 331 334 339 340
346 347 347 342 340 340 342 346 347 347 345 344 344 342 342 342 343 344 344 342 343 342 344 345 341 340 336 336 332 327 320 319 319 321 328 333 334 333
347 344 342 341 341 343 342 341 342 341 341 343 344 342 344 344 342 340 341 340 341 343 343 342 342 341 336 334 333 325 320 318 317 314 316 322 327 329
346 344 344 343 342 343 343 343 342 342 341 342 344 344 344 344 343 342 341 341 341 341 341 340 341 342 336 332 332 327 325 323 317 314 308 307 309 311
345 344 343 343 343 343 343 340 340 341 342 343 340 342 341 340 340 339 339 340 340 341 341 339 339 338 332 329 328 327 326 325 320 314 308 305 304 306
343 343 342 343 342 342 341 340 340 341 342 341 340 339 339 337 336 335 334 335 335 336 337 337 335 329 326 325 321 322 326 325 322 322 317 304 303 307
341 341 340 340 339 339 337 337 337 337 337 336 336 336 335 334 333 333 332 333 333 333 333 332 330 328 326 325 322 320 324 325 324 321 315 310 307 303
336 336 337 336 336 336 336 336 335 334 334 333 332 331 329 329 329 327 325 325 324 326 326 326 325 325 325 325 322 320 318 320 322 316 313 311 309 307
335 334 334 334 335 334 334 333 332 331 328 327 326 325 324 323 319 316 315 315 314 314 314 313 311 308 310 312 314 316 317 319 317 315 315 313 311 309
332 333 332 331 330 328 327 326 326 326 325 324 324 323 318 316 316 314 313 312 311 312 313 313 312 310 307 314 313 314 319 320 318 316 314 312 311 309
328 328 327 326 325 324 323 323 322 322 321 318 317 316 315 315 314 312 311 309 310 311 313 312 310 310 308 306 313 316 317 315 314 312 312 311 309 311
313 314 316 318 320 320 319 317 316 315 312 312 313 313 312 311 309 309 309 308 309 308 309 309 309 308 308 309 309 312 312 312 312 311 311 309 309 311
314 314 314 313 310 310 310 311 310 309 308 307 307 307 308 307 308 309 308 308 308 306 307 307 308 308 306 306 309 309 310 310 311 310 309 309 309 309
315 314 315 315 315 314 312 310 309 309 308 309 310 310 310 309 308 307 308 307 307 307 307 306 307 308 308 307 306 306 309 308 307 306 305 304 304 306
314 315 314 315 316 315 315 312 312 312 311 310 310 309 309 308 307 305 305 306 306 306 304 304 305 305 304 303 301 302 302 302 303 305 305 304 303 302
310 311 315 315 316 315 314 311 312 312 312 311 311 309 308 308 307 305 304 304 304 304 304 304 304 304 304 304 305 304 303 304 303 303 305 305 304 304
311 310 314 313 314 313 313 313 310 309 309 310 311 310 308 307 307 306 305 304 304 304 304 304 304 304 305 305 305 305 305 305 305 305 304 305 305 305

GFSNE_850_thetae_141.txt.gz
Theta_e
345 345 346 344 346 349 349 346 346 347 346 344 346 345 344 346 346 346 345 344 341 340 338 340 341 342 342 344 342 338 341 342 343 344 344 341 339 341
343 345 346 346 346 347 347 348 345 345 347 346 347 347 347 346 346 345 345 344 342 342 339 339 339 341 343 343 344 341 341 343 345 344 344 343 341 339
345 345 346 347 346 345 346 346 346 345 345 346 346 345 344 344 344 345 345 346 343 344 339 338 337 337 338 343 343 344 345 345 345 344 345 343 343 340
346 347 346 347 346 347 347 348 348 347 347 345 346 346 346 344 343 346 346 345 345 344 342 342 338 336 334 334 337 341 344 344 344 344 345 344 344 343
342 342 344 346 345 347 346 344 346 345 346 347 343 345 344 342 344 343 344 346 345 342 342 342 339 333 331 329 327 326 328 333 336 338 339 341 344 344
343 345 341 341 340 344 345 344 343 344 344 345 345 343 344 344 343 342 343 345 345 342 341 343 341 336 336 336 330 324 322 322 324 327 330 332 336 340
343 344 345 346 345 341 339 341 345 344 344 343 344 344 344 342 342 343 343 344 345 342 342 342 341 341 339 337 334 330 325 321 318 318 321 328 334 336
346 347 346 344 345 340 340 341 344 346 343 345 345 344 343 342 342 342 343 344 343 343 343 342 343 340 339 336 335 333 324 318 317 318 319 323 330 333
345 345 346 346 342 342 341 342 342 342 342 341 341 342 344 343 343 343 342 341 343 341 342 342 343 340 338 337 333 330 324 319 315 314 313 313 317 322
345 345 346 344 344 343 342 343 343 342 340 341 341 342 343 344 343 344 343 342 342 341 341 341 340 338 336 334 329 329 324 319 312 306 306 306 306 306
346 346 345 344 343 343 343 343 341 340 340 341 342 341 340 340 340 338 339 337 337 338 339 340 339 338 335 329 325 324 327 322 317 312 311 308 306 308
342 342 342 343 342 343 342 341 340 340 340 340 339 337 335 335 336 336 335 335 333 334 335 335 336 335 330 326 325 324 323 319 323 324 321 318 315 308
339 341 340 339 339 338 338 337 338 337 336 335 334 334 334 333 332 331 331 331 331 332 332 331 330 329 328 326 325 323 321 324 323 323 321 318 311 307
338 336 336 335 336 335 335 335 334 333 334 332 331 330 329 328 324 321 320 318 319 319 317 317 320 320 320 321 321 319 318 319 320 321 318 313 311 309
334 333 333 332 332 332 332 331 331 331 329 329 328 326 321 317 317 316 315 315 314 314 314 313 312 310 307 310 313 314 315 316 317 319 313 313 315 315
332 332 332 331 330 329 327 327 326 326 325 324 323 319 316 316 313 313 311 309 310 312 313 313 311 311 309 308 307 310 312 314 319 319 316 314 312 311
329 328 328 327 326 326 324 324 322 321 319 317 316 315 315 314 312 311 311 312 311 310 312 311 310 309 308 308 308 311 315 317 316 313 313 312 311 309
320 320 320 320 321 321 319 318 317 313 312 312 311 310 308 307 307 307 307 308 307 307 307 307 308 308 306 307 308 309 311 313 312 312 311 310 309 308
313 312 312 310 310 310 310 310 309 308 307 307 309 309 309 309 308 307 308 308 307 307 307 306 306 307 307 307 306 308 309 310 311 311 310 309 309 307
314 314 314 314 313 312 310 309 309 308 309 309 308 308 307 306 305 304 304 305 306 306 305 304 304 305 305 304 303 302 304 306 307 308 307 306 305 305
313 314 314 315 314 313 311 311 311 311 310 310 309 308 307 306 306 305 303 303 304 303 303 304 304 303 303 304 304 303 302 302 303 303 304 304 304 303
310 312 315 315 315 312 310 309 309 309 311 311 311 310 307 306 306 306 305 304 303 303 304 304 303 303 304 304 304 305 305 305 304 304 305 305 305 305
311 311 313 313 314 313 313 311 310 309 309 309 309 309 308 307 306 306 306 305 304 304 304 304 304 304 304 304 304 304 304 304 304 304 304 304 304 304